Air Quality Table

TIMESTAMP NO2 SO2 PM10 PM2.5 TEMP HUM AIRPRES WS WD NO
2022-11-26 10:00 1.98 µg/m3 -0.27 µg/m3 16.09 µg/m3 7.33 µg/m3 16.03 °C 89.03 % 1,011.91 mbar 3.28 m/s 262.03 Deg 1.32 µg/m3
2022-11-26 09:00 32.59 µg/m3 0.6 µg/m3 19.32 µg/m3 9.07 µg/m3 18.13 °C 87.86 % 1,011.76 mbar 3.1 m/s 200.8 Deg 17.71 µg/m3
2022-11-26 08:00 34.56 µg/m3 0.52 µg/m3 20.42 µg/m3 8.93 µg/m3 19.17 °C 81.69 % 1,011.99 mbar 2.06 m/s 182.73 Deg 7.55 µg/m3
2022-11-26 07:00 33.64 µg/m3 0.41 µg/m3 17.2 µg/m3 7.5 µg/m3 18.87 °C 80.53 % 1,013.12 mbar 2.93 m/s 184.5 Deg 15.25 µg/m3
2022-11-26 06:00 34.6 µg/m3 0.21 µg/m3 17.43 µg/m3 7.6 µg/m3 18.34 °C 81.11 % 1,013.17 mbar 1.92 m/s 182.53 Deg 8.52 µg/m3
2022-11-26 05:00 31.32 µg/m3 -0.06 µg/m3 17.69 µg/m3 7.58 µg/m3 17.76 °C 79.73 % 1,014.06 mbar 0.53 m/s 179.27 Deg 2.39 µg/m3
2022-11-26 04:00 37.13 µg/m3 0.84 µg/m3 17.18 µg/m3 7.41 µg/m3 17.62 °C 78.89 % 1,015.03 mbar 1.13 m/s 170.63 Deg 4.56 µg/m3
2022-11-26 03:00 43.21 µg/m3 2.37 µg/m3 30.08 µg/m3 14.08 µg/m3 16.41 °C 83.7 % 1,016.17 mbar 1.82 m/s 202.99 Deg 20.21 µg/m3
2022-11-26 02:00 45.85 µg/m3 2.72 µg/m3 39.9 µg/m3 19.3 µg/m3 15.64 °C 85.04 % 1,016.48 mbar 1.67 m/s 213.63 Deg 30.31 µg/m3
2022-11-26 01:00 52.86 µg/m3 2.69 µg/m3 47.7 µg/m3 23.23 µg/m3 15.64 °C 83.88 % 1,016.78 mbar 1.38 m/s 205.77 Deg 34.89 µg/m3
2022-11-26 00:00 50.12 µg/m3 2.79 µg/m3 46.65 µg/m3 22.73 µg/m3 15.39 °C 84.42 % 1,017.46 mbar 2.09 m/s 208.78 Deg 45.42 µg/m3
2022-11-25 23:00 58.14 µg/m3 2.6 µg/m3 49.4 µg/m3 23.95 µg/m3 15.63 °C 84.46 % 1,017.93 mbar 1.61 m/s 209.63 Deg 64.92 µg/m3
2022-11-25 22:00 62.36 µg/m3 2.8 µg/m3 49.95 µg/m3 24.21 µg/m3 15.95 °C 82.93 % 1,018.36 mbar 1.08 m/s 209.95 Deg 48.9 µg/m3
2022-11-25 21:00 63.67 µg/m3 1.98 µg/m3 53.45 µg/m3 25.97 µg/m3 15.92 °C 81.51 % 1,018.57 mbar 2.11 m/s 210.49 Deg 35.47 µg/m3
2022-11-25 20:00 71.33 µg/m3 2.8 µg/m3 44.42 µg/m3 19.52 µg/m3 16.67 °C 77.05 % 1,018.24 mbar 2.04 m/s 212.94 Deg 38.86 µg/m3
2022-11-25 19:00 63.75 µg/m3 1.07 µg/m3 44.29 µg/m3 13.57 µg/m3 17.61 °C 71.63 % 1,018.11 mbar 1.14 m/s 253.13 Deg 16.99 µg/m3
2022-11-25 18:00 38.78 µg/m3 0.24 µg/m3 28.46 µg/m3 8.58 µg/m3 18 °C 68.3 % 1,018.13 mbar 1.14 m/s 285.01 Deg 7.39 µg/m3
2022-11-25 17:00 14.41 µg/m3 0.33 µg/m3 25.59 µg/m3 7.73 µg/m3 18.61 °C 64.98 % 1,017.94 mbar 1.16 m/s 305.62 Deg 4.53 µg/m3
2022-11-25 16:00 7.88 µg/m3 0.15 µg/m3 26.02 µg/m3 7.65 µg/m3 19.22 °C 62.31 % 1,017.99 mbar 1.34 m/s 322.61 Deg 3.57 µg/m3
2022-11-25 15:00 11.06 µg/m3 0.7 µg/m3 24.54 µg/m3 7.39 µg/m3 19.44 °C 61.29 % 1,017.73 mbar 1.29 m/s 344.6 Deg 21.43 µg/m3
2022-11-25 14:00 6.38 µg/m3 0.39 µg/m3 28.67 µg/m3 7.76 µg/m3 19.58 °C 59.94 % 1,018.28 mbar 1.52 m/s 332.72 Deg 3.12 µg/m3
2022-11-25 13:00 6.25 µg/m3 0.63 µg/m3 25.71 µg/m3 7.77 µg/m3 19.32 °C 60.79 % 1,018.74 mbar 1.33 m/s 344.83 Deg 2.7 µg/m3
2022-11-25 12:00 5.74 µg/m3 0.56 µg/m3 23.69 µg/m3 7.45 µg/m3 18.81 °C 61.94 % 1,019.00 mbar 2.05 m/s 305.33 Deg 3.11 µg/m3
2022-11-25 11:00 14.25 µg/m3 0.61 µg/m3 28.94 µg/m3 8.12 µg/m3 18.57 °C 65.39 % 1,019.35 mbar 1.63 m/s 297.43 Deg 7.34 µg/m3
2022-11-25 10:00 23.93 µg/m3 0.97 µg/m3 34.51 µg/m3 9.98 µg/m3 17.86 °C 69.58 % 1,019.38 mbar 2.15 m/s 264.83 Deg 7.8 µg/m3
2022-11-25 09:00 63.32 µg/m3 2.21 µg/m3 40.88 µg/m3 13.99 µg/m3 16.85 °C 74.8 % 1,019.00 mbar 2.07 m/s 223.83 Deg 50.8 µg/m3
2022-11-25 08:00 70.86 µg/m3 2.7 µg/m3 32.31 µg/m3 14.91 µg/m3 15.87 °C 78.96 % 1,018.59 mbar 1.82 m/s 208.48 Deg 77.93 µg/m3
2022-11-25 07:00 63.57 µg/m3 2.65 µg/m3 24.48 µg/m3 11.01 µg/m3 16.28 °C 78.88 % 1,017.98 mbar 2.16 m/s 225.46 Deg 38.89 µg/m3
2022-11-25 06:00 40.2 µg/m3 0.52 µg/m3 23.45 µg/m3 9.51 µg/m3 16.75 °C 76.86 % 1,017.46 mbar 1.9 m/s 261.11 Deg 13.72 µg/m3
2022-11-25 05:00 26.08 µg/m3 0.27 µg/m3 21.64 µg/m3 9.25 µg/m3 16.53 °C 81.11 % 1,017.28 mbar 1.54 m/s 223.75 Deg 2.48 µg/m3
2022-11-25 04:00 24.96 µg/m3 0.6 µg/m3 21.42 µg/m3 9.55 µg/m3 16.57 °C 82.02 % 1,017.12 mbar 2.25 m/s 209.52 Deg 3.83 µg/m3
2022-11-25 03:00 27.95 µg/m3 0.48 µg/m3 21.47 µg/m3 9.47 µg/m3 16.8 °C 80.42 % 1,016.91 mbar 1.97 m/s 216.1 Deg 1.73 µg/m3
2022-11-25 02:00 26.25 µg/m3 0.31 µg/m3 22.48 µg/m3 9.98 µg/m3 17.23 °C 77.96 % 1,016.64 mbar 1.88 m/s 230.69 Deg 2.8 µg/m3
2022-11-25 01:00 14.24 µg/m3 0.01 µg/m3 22.89 µg/m3 10.05 µg/m3 17.41 °C 77.07 % 1,016.59 mbar 2.08 m/s 263.65 Deg 0.98 µg/m3
2022-11-25 00:00 30.1 µg/m3 -0.5 µg/m3 26.23 µg/m3 11.98 µg/m3 17.41 °C 78.01 % 1,016.44 mbar 2.13 m/s 243.68 Deg 4.55 µg/m3
2022-11-24 23:00 27.88 µg/m3 -1.35 µg/m3 26.71 µg/m3 12.36 µg/m3 17.69 °C 78.1 % 1,016.13 mbar 2.58 m/s 247.83 Deg 3.92 µg/m3
2022-11-24 22:00 14.78 µg/m3 -0.5 µg/m3 25.48 µg/m3 11.86 µg/m3 17.86 °C 77.45 % 1,015.84 mbar 3.43 m/s 259.4 Deg 1.74 µg/m3
2022-11-24 21:00 29.71 µg/m3 -0.23 µg/m3 26.8 µg/m3 12.82 µg/m3 17.92 °C 77.47 % 1,015.42 mbar 3.53 m/s 254.64 Deg 8.04 µg/m3
2022-11-24 20:00 21.21 µg/m3 1.32 µg/m3 25.71 µg/m3 12.05 µg/m3 18.02 °C 77.21 % 1,014.83 mbar 3.48 m/s 258.94 Deg 2.48 µg/m3
2022-11-24 19:00 18.48 µg/m3 0.22 µg/m3 27.58 µg/m3 12.21 µg/m3 18.24 °C 75.96 % 1,014.38 mbar 3.55 m/s 264.14 Deg 1.69 µg/m3
2022-11-24 18:00 18.78 µg/m3 0.41 µg/m3 27.09 µg/m3 11.45 µg/m3 18.53 °C 72.94 % 1,013.95 mbar 4.36 m/s 263.56 Deg 2.78 µg/m3
2022-11-24 17:00 15.48 µg/m3 0.19 µg/m3 25.18 µg/m3 10.07 µg/m3 18.97 °C 70.09 % 1,013.38 mbar 4.44 m/s 258.86 Deg 1.85 µg/m3
2022-11-24 16:00 10.91 µg/m3 -0.19 µg/m3 21.36 µg/m3 8.55 µg/m3 19.4 °C 69.9 % 1,012.72 mbar 5.78 m/s 268.68 Deg 2.54 µg/m3
2022-11-24 15:00 9.39 µg/m3 0.17 µg/m3 24.13 µg/m3 8.08 µg/m3 19.6 °C 68.92 % 1,012.64 mbar 5.63 m/s 267.19 Deg 3.71 µg/m3
2022-11-24 14:00 8.71 µg/m3 -0.1 µg/m3 20.2 µg/m3 6.72 µg/m3 19.97 °C 65.16 % 1,012.67 mbar 5.87 m/s 268.69 Deg 4.64 µg/m3
2022-11-24 13:00 8.45 µg/m3 -0.22 µg/m3 17.97 µg/m3 6.36 µg/m3 19.75 °C 67.1 % 1,012.84 mbar 6.09 m/s 273.33 Deg 3.71 µg/m3
2022-11-24 12:00 10.84 µg/m3 -0.35 µg/m3 18.83 µg/m3 6.91 µg/m3 19.69 °C 73.53 % 1,013.17 mbar 6.12 m/s 269.62 Deg 6.2 µg/m3
2022-11-24 11:00 13.8 µg/m3 0.05 µg/m3 19.07 µg/m3 7.93 µg/m3 19.71 °C 77.06 % 1,013.27 mbar 5.04 m/s 264.68 Deg 7.85 µg/m3
2022-11-24 10:00 9.14 µg/m3 -0.3 µg/m3 17.77 µg/m3 7.67 µg/m3 19.33 °C 79.32 % 1,013.24 mbar 4.16 m/s 275.83 Deg 5.4 µg/m3
2022-11-24 09:00 17.92 µg/m3 0.39 µg/m3 29.38 µg/m3 13.05 µg/m3 18.95 °C 80.5 % 1,012.74 mbar 4.25 m/s 270.51 Deg 11.09 µg/m3
2022-11-24 08:00 18.24 µg/m3 0.41 µg/m3 34.44 µg/m3 17.06 µg/m3 18.69 °C 81.88 % 1,011.75 mbar 3.89 m/s 270.15 Deg 4.57 µg/m3
2022-11-24 07:00 15.36 µg/m3 0.03 µg/m3 41.84 µg/m3 22.29 µg/m3 18.89 °C 84.18 % 1,010.86 mbar 4.17 m/s 272.21 Deg 4.58 µg/m3
2022-11-24 06:00 7.87 µg/m3 -0.78 µg/m3 42.81 µg/m3 23.09 µg/m3 19.11 °C 84.38 % 1,009.86 mbar 4.45 m/s 257.99 Deg 1.58 µg/m3
2022-11-24 05:00 8.58 µg/m3 -0.21 µg/m3 39.83 µg/m3 21.98 µg/m3 18.98 °C 87.51 % 1,009.43 mbar 4.27 m/s 257.86 Deg 2.23 µg/m3
2022-11-24 04:00 8.84 µg/m3 0.13 µg/m3 21.78 µg/m3 11.52 µg/m3 18.66 °C 89.08 % 1,009.32 mbar 4.19 m/s 261.26 Deg 2.72 µg/m3
2022-11-24 03:00 6.72 µg/m3 -0.31 µg/m3 20.16 µg/m3 10.04 µg/m3 18.7 °C 86.99 % 1,009.25 mbar 4.18 m/s 267.43 Deg 1.03 µg/m3
2022-11-24 02:00 5.64 µg/m3 -0.79 µg/m3 17.46 µg/m3 8.65 µg/m3 18.55 °C 90.92 % 1,009.09 mbar 4.51 m/s 260.42 Deg 2.29 µg/m3
2022-11-24 01:00 9.66 µg/m3 -1.24 µg/m3 15.06 µg/m3 7.14 µg/m3 18.29 °C 89.64 % 1,009.17 mbar 4.94 m/s 237.83 Deg 3.62 µg/m3
2022-11-24 00:00 16.5 µg/m3 -1.26 µg/m3 12.38 µg/m3 5.46 µg/m3 18.25 °C 89.49 % 1,009.49 mbar 4.04 m/s 238 Deg 6.76 µg/m3
2022-11-23 23:00 10.72 µg/m3 -0.22 µg/m3 9.73 µg/m3 3.78 µg/m3 17.67 °C 89.73 % 1,009.52 mbar 4.68 m/s 238.79 Deg 3.34 µg/m3
2022-11-23 22:00 5.4 µg/m3 -0.5 µg/m3 8.21 µg/m3 2.91 µg/m3 17.08 °C 90.77 % 1,009.49 mbar 7.18 m/s 229.71 Deg 1.84 µg/m3
2022-11-23 21:00 9.1 µg/m3 -0.06 µg/m3 10.99 µg/m3 4.66 µg/m3 18.68 °C 81.37 % 1,009.21 mbar 7.5 m/s 237.05 Deg 2.36 µg/m3
2022-11-23 20:00 19.54 µg/m3 -0.09 µg/m3 13.29 µg/m3 5.54 µg/m3 19.27 °C 72.22 % 1,008.81 mbar 6.12 m/s 257.93 Deg 5.76 µg/m3
2022-11-23 19:00 22.96 µg/m3 0.02 µg/m3 14.92 µg/m3 6.45 µg/m3 19.14 °C 70.27 % 1,008.64 mbar 5.8 m/s 235.28 Deg 6.34 µg/m3
2022-11-23 18:00 20.45 µg/m3 -0.08 µg/m3 14.18 µg/m3 6.08 µg/m3 18.78 °C 70.72 % 1,008.41 mbar 6.17 m/s 240.33 Deg 4.22 µg/m3
2022-11-23 17:00 17.76 µg/m3 -0.31 µg/m3 13.38 µg/m3 5.54 µg/m3 18.56 °C 71.85 % 1,008.00 mbar 6.64 m/s 256.76 Deg 4.01 µg/m3
2022-11-23 16:00 14.94 µg/m3 -0.01 µg/m3 12.47 µg/m3 5.03 µg/m3 18.96 °C 68.55 % 1,007.58 mbar 7.33 m/s 232.54 Deg 5.19 µg/m3
2022-11-23 15:00 9.69 µg/m3 0.27 µg/m3 12.04 µg/m3 4.78 µg/m3 19.2 °C 65.75 % 1,007.23 mbar 8.54 m/s 233.88 Deg 4.31 µg/m3
2022-11-23 14:00 11.13 µg/m3 -1.18 µg/m3 13.39 µg/m3 5.5 µg/m3 19.19 °C 65.41 % 1,007.42 mbar 8.82 m/s 229.41 Deg 9.16 µg/m3
2022-11-23 13:00 8.42 µg/m3 0.58 µg/m3 12.37 µg/m3 4.91 µg/m3 19.17 °C 62.28 % 1,007.61 mbar 8.51 m/s 231.97 Deg 4.07 µg/m3
2022-11-23 12:00 10.39 µg/m3 0.18 µg/m3 12.69 µg/m3 4.76 µg/m3 18.43 °C 66.33 % 1,008.08 mbar 8.37 m/s 253.31 Deg 6.44 µg/m3
2022-11-23 11:00 14.57 µg/m3 7.45 µg/m3 13.37 µg/m3 5.19 µg/m3 18.75 °C 61.96 % 1,008.39 mbar 8.04 m/s 243.9 Deg 11.03 µg/m3
2022-11-23 10:00 18.56 µg/m3 -13.55 µg/m3 15.12 µg/m3 5.78 µg/m3 18.47 °C 59.01 % 1,008.71 mbar 6.82 m/s 234.63 Deg 15.18 µg/m3
2022-11-23 09:00 28.18 µg/m3 0.46 µg/m3 16.69 µg/m3 6.3 µg/m3 17.74 °C 60.57 % 1,008.44 mbar 6.02 m/s 251.2 Deg 11.94 µg/m3
2022-11-23 08:00 35.75 µg/m3 1.25 µg/m3 17.18 µg/m3 7.1 µg/m3 17.28 °C 62.04 % 1,008.04 mbar 5.54 m/s 248.92 Deg 24.79 µg/m3
2022-11-23 07:00 17.51 µg/m3 0.67 µg/m3 15.59 µg/m3 6.48 µg/m3 16.95 °C 61.53 % 1,007.77 mbar 4.99 m/s 240.77 Deg 3.91 µg/m3
2022-11-23 06:00 19.27 µg/m3 1.14 µg/m3 15.87 µg/m3 6.31 µg/m3 16.75 °C 61.47 % 1,007.86 mbar 4.16 m/s 243.56 Deg 4.25 µg/m3
2022-11-23 05:00 16.11 µg/m3 0.76 µg/m3 15.95 µg/m3 6.45 µg/m3 16.66 °C 62.97 % 1,008.07 mbar 4.35 m/s 250.21 Deg 2.89 µg/m3
2022-11-23 04:00 12.07 µg/m3 0.01 µg/m3 15.48 µg/m3 6.34 µg/m3 16.3 °C 66.54 % 1,008.27 mbar 4.37 m/s 232.09 Deg 1.66 µg/m3
2022-11-23 03:00 12.73 µg/m3 0.25 µg/m3 15.79 µg/m3 6.43 µg/m3 15.73 °C 71.6 % 1,008.58 mbar 4.45 m/s 244.67 Deg 1.58 µg/m3
2022-11-23 02:00 16.81 µg/m3 0.33 µg/m3 16.1 µg/m3 6.79 µg/m3 15.19 °C 75.75 % 1,009.01 mbar 3.81 m/s 210.6 Deg 5.69 µg/m3
2022-11-23 01:00 5.72 µg/m3 0.08 µg/m3 12.38 µg/m3 4.99 µg/m3 15.05 °C 72.34 % 1,009.49 mbar 6.58 m/s 247.02 Deg 1.82 µg/m3
2022-11-23 00:00 7.52 µg/m3 0.39 µg/m3 12.46 µg/m3 5.13 µg/m3 17.35 °C 58.73 % 1,009.47 mbar 6.94 m/s 234.11 Deg 1.41 µg/m3
2022-11-22 23:00 11.74 µg/m3 -0.06 µg/m3 12.57 µg/m3 5.3 µg/m3 17.35 °C 61.49 % 1,009.44 mbar 6.32 m/s 234.31 Deg 2.14 µg/m3
2022-11-22 22:00 11.65 µg/m3 0.45 µg/m3 13.27 µg/m3 5.52 µg/m3 17.64 °C 58.39 % 1,009.46 mbar 6.24 m/s 235.48 Deg 4.5 µg/m3
2022-11-22 21:00 6.47 µg/m3 -0.41 µg/m3 12.32 µg/m3 5 µg/m3 17.75 °C 56.02 % 1,009.03 mbar 7.33 m/s 231.58 Deg 1.1 µg/m3
2022-11-22 20:00 10.93 µg/m3 -1.49 µg/m3 14.31 µg/m3 5.65 µg/m3 17.58 °C 56.72 % 1,008.81 mbar 5.83 m/s 244.18 Deg 1.55 µg/m3
2022-11-22 19:00 12.35 µg/m3 -0.23 µg/m3 15.35 µg/m3 6.08 µg/m3 17.59 °C 57.48 % 1,008.56 mbar 5.96 m/s 255.38 Deg 1.27 µg/m3
2022-11-22 18:00 13.3 µg/m3 -0.43 µg/m3 15.33 µg/m3 6.25 µg/m3 17.63 °C 58.59 % 1,008.29 mbar 6.57 m/s 255.5 Deg 2.12 µg/m3
2022-11-22 17:00 13.47 µg/m3 -0.03 µg/m3 15.72 µg/m3 6.18 µg/m3 17.41 °C 63.31 % 1,007.65 mbar 6.46 m/s 251.18 Deg 2.07 µg/m3
2022-11-22 16:00 10.25 µg/m3 -0.91 µg/m3 16.81 µg/m3 6.4 µg/m3 18.38 °C 59.91 % 1,006.95 mbar 8.41 m/s 250.95 Deg 2.54 µg/m3
2022-11-22 15:00 9.77 µg/m3 -0.05 µg/m3 13.7 µg/m3 5.18 µg/m3 19.22 °C 58.1 % 1,006.17 mbar 9.8 m/s 234.73 Deg 1.87 µg/m3
2022-11-22 14:00 14.75 µg/m3 0.48 µg/m3 22.49 µg/m3 8.84 µg/m3 18.37 °C 71.82 % 1,006.47 mbar 8.46 m/s 235.13 Deg 4.43 µg/m3
2022-11-22 13:00 11.11 µg/m3 0.06 µg/m3 20.54 µg/m3 6.73 µg/m3 20.07 °C 60 % 1,006.19 mbar 13.45 m/s 225.91 Deg 3.6 µg/m3
2022-11-22 12:00 12.13 µg/m3 0.34 µg/m3 25.38 µg/m3 7.34 µg/m3 20.27 °C 63.04 % 1,006.57 mbar 15.13 m/s 213.12 Deg 5.75 µg/m3
2022-11-22 11:00 16.1 µg/m3 -0.37 µg/m3 24.49 µg/m3 7.01 µg/m3 20.03 °C 62.86 % 1,006.73 mbar 15.09 m/s 207.45 Deg 6.5 µg/m3
2022-11-22 10:00 25.76 µg/m3 0.52 µg/m3 23.03 µg/m3 6.73 µg/m3 19.64 °C 64.13 % 1,006.39 mbar 14.57 m/s 208.36 Deg 12.98 µg/m3
2022-11-22 09:00 34.83 µg/m3 1.04 µg/m3 20.76 µg/m3 6.81 µg/m3 19.28 °C 64.51 % 1,006.96 mbar 12.14 m/s 204.72 Deg 18.21 µg/m3
2022-11-22 08:00 42.79 µg/m3 0.94 µg/m3 18.27 µg/m3 6.88 µg/m3 18.72 °C 63.77 % 1,007.50 mbar 9.3 m/s 208.77 Deg 22.6 µg/m3
2022-11-22 07:00 46.78 µg/m3 1 µg/m3 18.68 µg/m3 7.73 µg/m3 18.54 °C 61.61 % 1,008.48 mbar 8.41 m/s 206.46 Deg 22.96 µg/m3
2022-11-22 06:00 36.2 µg/m3 0.9 µg/m3 18.34 µg/m3 7.4 µg/m3 18.51 °C 57.41 % 1,008.98 mbar 8.34 m/s 199.57 Deg 15.24 µg/m3
2022-11-22 05:00 21.62 µg/m3 0.71 µg/m3 15.02 µg/m3 5.82 µg/m3 18.73 °C 53.38 % 1,009.61 mbar 8.89 m/s 201.47 Deg 4 µg/m3
2022-11-22 04:00 20.25 µg/m3 0.67 µg/m3 13.8 µg/m3 5.27 µg/m3 19.08 °C 54.49 % 1,010.67 mbar 9.72 m/s 206.54 Deg 2.83 µg/m3
2022-11-22 03:00 15.98 µg/m3 0.43 µg/m3 15.9 µg/m3 5.79 µg/m3 19.33 °C 57.08 % 1,011.56 mbar 9.1 m/s 212.58 Deg 2.07 µg/m3
2022-11-22 02:00 27.82 µg/m3 1.18 µg/m3 15.68 µg/m3 5.65 µg/m3 19.05 °C 56.71 % 1,012.17 mbar 6.64 m/s 203.88 Deg 4.11 µg/m3
2022-11-22 01:00 35.15 µg/m3 1.4 µg/m3 10.84 µg/m3 3.81 µg/m3 18.6 °C 59.91 % 1,013.23 mbar 5.43 m/s 207.49 Deg 5.94 µg/m3
2022-11-22 00:00 56.57 µg/m3 1.94 µg/m3 13.46 µg/m3 5.06 µg/m3 18.09 °C 64.06 % 1,013.90 mbar 4.13 m/s 207.9 Deg 31.89 µg/m3
2022-11-21 23:00 45.42 µg/m3 1.39 µg/m3 12.87 µg/m3 4.53 µg/m3 17.87 °C 67.33 % 1,014.33 mbar 3.72 m/s 204.44 Deg 9.07 µg/m3
2022-11-21 22:00 41.15 µg/m3 1.39 µg/m3 16.05 µg/m3 7.25 µg/m3 17.99 °C 66.72 % 1,014.56 mbar 4.4 m/s 206.27 Deg 13.07 µg/m3
2022-11-21 21:00 47.02 µg/m3 0.56 µg/m3 16.43 µg/m3 6.03 µg/m3 17.72 °C 69.48 % 1,014.42 mbar 3.64 m/s 202.78 Deg 8.18 µg/m3
2022-11-21 20:00 43.92 µg/m3 0.22 µg/m3 19.75 µg/m3 6.66 µg/m3 17.9 °C 68.02 % 1,014.51 mbar 3.49 m/s 207.9 Deg 4.73 µg/m3
2022-11-21 19:00 61.39 µg/m3 1.29 µg/m3 17.52 µg/m3 6.71 µg/m3 18.06 °C 66.74 % 1,014.77 mbar 4.18 m/s 221.89 Deg 44.87 µg/m3
2022-11-21 18:00 48.49 µg/m3 1.08 µg/m3 14.86 µg/m3 5.88 µg/m3 18.16 °C 67.03 % 1,014.53 mbar 4.3 m/s 245.95 Deg 20.45 µg/m3
2022-11-21 17:00 24.08 µg/m3 -0.04 µg/m3 14.77 µg/m3 5.6 µg/m3 18.29 °C 67.77 % 1,014.36 mbar 4.49 m/s 261.58 Deg 4.94 µg/m3
2022-11-21 16:00 17.81 µg/m3 0.48 µg/m3 14.85 µg/m3 6.02 µg/m3 17.71 °C 74.17 % 1,014.39 mbar 4.42 m/s 258.99 Deg 4.25 µg/m3
2022-11-21 15:00 16.62 µg/m3 0.9 µg/m3 14.96 µg/m3 6.1 µg/m3 17.1 °C 78.1 % 1,014.56 mbar 3.88 m/s 267.37 Deg 6.4 µg/m3
2022-11-21 14:00 16.42 µg/m3 0.68 µg/m3 16.14 µg/m3 5.91 µg/m3 18.08 °C 70.82 % 1,014.58 mbar 5.21 m/s 262.55 Deg 5.95 µg/m3
2022-11-21 13:00 12.06 µg/m3 0.88 µg/m3 15.77 µg/m3 6.61 µg/m3 16.54 °C 80.84 % 1,015.02 mbar 3.57 m/s 275.18 Deg 3.46 µg/m3
2022-11-21 12:00 19.62 µg/m3 0.81 µg/m3 15.39 µg/m3 6.37 µg/m3 16.15 °C 81.4 % 1,015.78 mbar 3.36 m/s 272.1 Deg 8.63 µg/m3
2022-11-21 11:00 18.94 µg/m3 0.9 µg/m3 18.51 µg/m3 6.57 µg/m3 17.11 °C 70.43 % 1,015.78 mbar 4.98 m/s 252.07 Deg 8.61 µg/m3
2022-11-21 10:00 11.61 µg/m3 1.03 µg/m3 22.34 µg/m3 6.54 µg/m3 18.35 °C 54.33 % 1,015.39 mbar 5.1 m/s 269.2 Deg 4.47 µg/m3
2022-11-21 09:00 16.7 µg/m3 1.05 µg/m3 21.67 µg/m3 7.06 µg/m3 17.57 °C 55.44 % 1,015.09 mbar 4.02 m/s 260.27 Deg 3.93 µg/m3
2022-11-21 08:00 18.75 µg/m3 0.63 µg/m3 20.29 µg/m3 7.53 µg/m3 16.94 °C 60.95 % 1,014.56 mbar 4.16 m/s 260.57 Deg 3.65 µg/m3
2022-11-21 07:00 8.86 µg/m3 0.24 µg/m3 17.25 µg/m3 7.17 µg/m3 16.45 °C 72.35 % 1,013.94 mbar 4.73 m/s 268.53 Deg 2.32 µg/m3
2022-11-21 06:00 9.33 µg/m3 0.09 µg/m3 15.68 µg/m3 6.43 µg/m3 15.79 °C 77.37 % 1,013.42 mbar 3.03 m/s 267.11 Deg 2.64 µg/m3
2022-11-21 05:00 5.22 µg/m3 -0.28 µg/m3 16.1 µg/m3 5.65 µg/m3 16.63 °C 68.2 % 1,012.88 mbar 3.22 m/s 254.73 Deg 2.6 µg/m3
2022-11-21 04:00 1.8 µg/m3 -1.05 µg/m3 14.39 µg/m3 5.45 µg/m3 16.55 °C 69.34 % 1,012.57 mbar 3.91 m/s 253.81 Deg 1.24 µg/m3
2022-11-21 03:00 2.36 µg/m3 -1.53 µg/m3 14.21 µg/m3 5.53 µg/m3 16.88 °C 69.37 % 1,012.42 mbar 4.51 m/s 257.48 Deg 0.35 µg/m3
2022-11-21 02:00 0.6 µg/m3 -1.7 µg/m3 13.12 µg/m3 4.94 µg/m3 16.76 °C 66.19 % 1,012.55 mbar 4.71 m/s 254.63 Deg 0.94 µg/m3
2022-11-21 01:00 0.38 µg/m3 -1.12 µg/m3 16.37 µg/m3 6.62 µg/m3 16.74 °C 68.91 % 1,012.70 mbar 4.5 m/s 260.7 Deg 0.44 µg/m3
2022-11-21 00:00 -0.24 µg/m3 -0.31 µg/m3 14.83 µg/m3 6.3 µg/m3 17.77 °C 64.41 % 1,012.48 mbar 5.95 m/s 250.51 Deg 0.52 µg/m3
2022-11-20 23:00 1.65 µg/m3 -0.59 µg/m3 17.53 µg/m3 6.8 µg/m3 18.02 °C 60.31 % 1,012.16 mbar 5.13 m/s 256.84 Deg 0.44 µg/m3
2022-11-20 22:00 1.58 µg/m3 -0.47 µg/m3 17.34 µg/m3 6.63 µg/m3 18.18 °C 59.23 % 1,011.63 mbar 5.18 m/s 253.86 Deg 0.63 µg/m3
2022-11-20 21:00 1.67 µg/m3 -0.64 µg/m3 14.86 µg/m3 5.86 µg/m3 17.96 °C 63.15 % 1,010.86 mbar 5.44 m/s 257.34 Deg 0.88 µg/m3
2022-11-20 20:00 2.38 µg/m3 -1.39 µg/m3 14.52 µg/m3 5.48 µg/m3 17.78 °C 64.37 % 1,010.25 mbar 5.48 m/s 257.97 Deg 0.86 µg/m3
2022-11-20 19:00 5.4 µg/m3 -1.14 µg/m3 13.36 µg/m3 5.08 µg/m3 17.59 °C 65.02 % 1,009.52 mbar 5.09 m/s 253.08 Deg 1.13 µg/m3
2022-11-20 18:00 5.33 µg/m3 -0.4 µg/m3 12.87 µg/m3 4.76 µg/m3 16.85 °C 66.91 % 1,008.76 mbar 4.83 m/s 256.01 Deg 0.68 µg/m3
2022-11-20 17:00 3.02 µg/m3 -0.73 µg/m3 10.06 µg/m3 3.6 µg/m3 16.78 °C 67.28 % 1,008.16 mbar 6.03 m/s 246.19 Deg 0.7 µg/m3
2022-11-20 16:00 3.44 µg/m3 -0.76 µg/m3 10.08 µg/m3 3.68 µg/m3 16.79 °C 71.94 % 1,007.44 mbar 6.33 m/s 227.36 Deg 1.5 µg/m3
2022-11-20 15:00 4.25 µg/m3 -0.64 µg/m3 11.75 µg/m3 4.26 µg/m3 17.23 °C 68.82 % 1,007.01 mbar 6.65 m/s 227.86 Deg 4.66 µg/m3
2022-11-20 14:00 28.18 µg/m3 -3.59 µg/m3 13.18 µg/m3 5.21 µg/m3 16.22 °C 76.08 % 1,007.28 mbar 5.31 m/s 228.18 Deg 20.71 µg/m3
2022-11-20 13:00 20.78 µg/m3 -0.56 µg/m3 13.68 µg/m3 5.06 µg/m3 15.94 °C 74.51 % 1,007.43 mbar 5.33 m/s 239.92 Deg 11.79 µg/m3
2022-11-20 12:00 8.32 µg/m3 -2.95 µg/m3 12.56 µg/m3 5.09 µg/m3 11.81 °C 97.5 % 1,008.07 mbar 7.59 m/s 247.15 Deg 2.06 µg/m3
2022-11-20 11:00 4.9 µg/m3 -1.18 µg/m3 17.47 µg/m3 6.04 µg/m3 17.12 °C 75.13 % 1,007.16 mbar 4.87 m/s 275.8 Deg 2.11 µg/m3
2022-11-20 10:00 6.28 µg/m3 -1.31 µg/m3 33.35 µg/m3 10.54 µg/m3 18.32 °C 73.06 % 1,006.69 mbar 6.47 m/s 260.65 Deg 2.37 µg/m3
2022-11-20 09:00 13.03 µg/m3 -2.41 µg/m3 70.97 µg/m3 21.92 µg/m3 20.34 °C 58.67 % 1,005.39 mbar 9.96 m/s 207.56 Deg 4.16 µg/m3
2022-11-20 08:00 32.42 µg/m3 -1.81 µg/m3 153.1 µg/m3 51.66 µg/m3 19.73 °C 67.52 % 1,005.26 mbar 5.93 m/s 185.83 Deg 24.62 µg/m3
2022-11-20 07:00 53.59 µg/m3 0.05 µg/m3 25.78 µg/m3 11.55 µg/m3 18.61 °C 80.79 % 1,005.36 mbar 0.44 m/s 207.62 Deg 23.38 µg/m3
2022-11-20 06:00 40.22 µg/m3 -0.26 µg/m3 21.14 µg/m3 8.39 µg/m3 18.82 °C 79.26 % 1,006.08 mbar 0.74 m/s 221.83 Deg 8.93 µg/m3
2022-11-20 05:00 20.26 µg/m3 -0.65 µg/m3 20.96 µg/m3 7.67 µg/m3 18.96 °C 77.16 % 1,006.62 mbar 1.73 m/s 264.15 Deg 2.27 µg/m3
2022-11-20 04:00 24.05 µg/m3 -0.55 µg/m3 20.31 µg/m3 8.76 µg/m3 19.18 °C 79.17 % 1,006.74 mbar 1.61 m/s 239.43 Deg 2.73 µg/m3
2022-11-20 03:00 14.19 µg/m3 -0.58 µg/m3 25.21 µg/m3 8.79 µg/m3 19.44 °C 76.94 % 1,007.14 mbar 1.13 m/s 280.57 Deg 0.86 µg/m3
2022-11-20 02:00 2.62 µg/m3 -0.62 µg/m3 30.28 µg/m3 8.35 µg/m3 19.69 °C 76.24 % 1,007.72 mbar 1.02 m/s 292.53 Deg 0.84 µg/m3
2022-11-20 01:00 1.67 µg/m3 -0.53 µg/m3 28.51 µg/m3 8.07 µg/m3 19.89 °C 76.17 % 1,007.83 mbar 1.15 m/s 312.92 Deg 0.69 µg/m3
2022-11-20 00:00 4.3 µg/m3 -0.44 µg/m3 21.51 µg/m3 9.02 µg/m3 20.39 °C 79.57 % 1,008.17 mbar 1.52 m/s 305.1 Deg 0.67 µg/m3
2022-11-19 23:00 13.54 µg/m3 -0.52 µg/m3 119.6 µg/m3 32.16 µg/m3 21.68 °C 72.4 % 1,008.14 mbar 3.03 m/s 245.39 Deg 2.64 µg/m3
2022-11-19 22:00 10.4 µg/m3 -0.54 µg/m3 55.91 µg/m3 19.9 µg/m3 22.49 °C 72.17 % 1,007.84 mbar 5.95 m/s 223.12 Deg 3.56 µg/m3
2022-11-19 21:00 18.88 µg/m3 -0.65 µg/m3 98.51 µg/m3 34.5 µg/m3 22.97 °C 72.48 % 1,007.31 mbar 6.18 m/s 195.45 Deg 4.27 µg/m3
2022-11-19 20:00 19.92 µg/m3 -0.48 µg/m3 95.33 µg/m3 31.89 µg/m3 23 °C 71.11 % 1,007.03 mbar 5.96 m/s 196.28 Deg 5.49 µg/m3
2022-11-19 19:00 37.66 µg/m3 -0.28 µg/m3 45.13 µg/m3 18.75 µg/m3 22.82 °C 77.13 % 1,006.66 mbar 5.02 m/s 188.85 Deg 21.22 µg/m3
2022-11-19 18:00 50.06 µg/m3 0.17 µg/m3 43.8 µg/m3 16.33 µg/m3 22.85 °C 76.44 % 1,006.51 mbar 4.06 m/s 187.67 Deg 25.45 µg/m3
2022-11-19 17:00 41.05 µg/m3 -0.15 µg/m3 35.4 µg/m3 13.87 µg/m3 22.81 °C 77.82 % 1,006.35 mbar 4.05 m/s 183.13 Deg 27.91 µg/m3
2022-11-19 16:00 32.88 µg/m3 -0.21 µg/m3 36.5 µg/m3 12.15 µg/m3 23.37 °C 76.41 % 1,006.41 mbar 4.01 m/s 190.03 Deg 35.99 µg/m3
2022-11-19 15:00 22.25 µg/m3 -0.75 µg/m3 27.61 µg/m3 9.43 µg/m3 23.5 °C 75.26 % 1,006.78 mbar 5.05 m/s 193.65 Deg 16.39 µg/m3
2022-11-19 14:00 14.45 µg/m3 -0.91 µg/m3 22 µg/m3 7.56 µg/m3 23.44 °C 73.84 % 1,006.95 mbar 6.55 m/s 212.73 Deg 6.47 µg/m3
2022-11-19 13:00 11 µg/m3 -0.86 µg/m3 18.27 µg/m3 6.61 µg/m3 23.42 °C 75.22 % 1,007.15 mbar 7.35 m/s 201.9 Deg 5.58 µg/m3
2022-11-19 12:00 21.1 µg/m3 -0.02 µg/m3 26.27 µg/m3 10.32 µg/m3 23.45 °C 75.44 % 1,007.58 mbar 6.8 m/s 211.2 Deg 7.84 µg/m3
2022-11-19 11:00 18.26 µg/m3 -0.3 µg/m3 26.71 µg/m3 12.32 µg/m3 23.13 °C 81.84 % 1,008.10 mbar 6.35 m/s 196.27 Deg 9.27 µg/m3
2022-11-19 10:00 34.19 µg/m3 -0.25 µg/m3 40.09 µg/m3 18.96 µg/m3 22.74 °C 82.37 % 1,008.05 mbar 4.6 m/s 180.92 Deg 37.47 µg/m3
2022-11-19 09:00 48.46 µg/m3 0.24 µg/m3 44.48 µg/m3 21.14 µg/m3 22.17 °C 83.86 % 1,007.89 mbar 3.57 m/s 176.38 Deg 47.01 µg/m3
2022-11-19 08:00 54.57 µg/m3 -0.03 µg/m3 37.51 µg/m3 17.56 µg/m3 21.56 °C 86.36 % 1,007.81 mbar 3.35 m/s 182.62 Deg 41.33 µg/m3
2022-11-19 07:00 46.99 µg/m3 0.23 µg/m3 35.37 µg/m3 16.46 µg/m3 21.17 °C 86.86 % 1,007.74 mbar 3.18 m/s 182.18 Deg 39.69 µg/m3
2022-11-19 06:00 43.84 µg/m3 0.04 µg/m3 43.51 µg/m3 20.63 µg/m3 21.01 °C 85.99 % 1,007.68 mbar 2.45 m/s 178.83 Deg 31.66 µg/m3
2022-11-19 05:00 42.1 µg/m3 -0.2 µg/m3 43.42 µg/m3 20.59 µg/m3 21.16 °C 86.19 % 1,007.69 mbar 2.98 m/s 184.71 Deg 30.04 µg/m3
2022-11-19 04:00 47.87 µg/m3 0.13 µg/m3 40.85 µg/m3 19.27 µg/m3 20.99 °C 87.75 % 1,007.96 mbar 3.15 m/s 184.43 Deg 38.92 µg/m3
2022-11-19 03:00 52.91 µg/m3 -0.39 µg/m3 40.92 µg/m3 19.3 µg/m3 20.67 °C 88.77 % 1,008.16 mbar 2.77 m/s 175.2 Deg 44.64 µg/m3
2022-11-19 02:00 34.06 µg/m3 0.25 µg/m3 30.4 µg/m3 13.91 µg/m3 20.19 °C 90.1 % 1,008.50 mbar 1.24 m/s 177.56 Deg 12.01 µg/m3
2022-11-19 01:00 52.06 µg/m3 0.7 µg/m3 30.25 µg/m3 13.83 µg/m3 20.05 °C 90.16 % 1,008.72 mbar 1.59 m/s 200.21 Deg 33.32 µg/m3
2022-11-19 00:00 53.05 µg/m3 0.88 µg/m3 30.38 µg/m3 13.91 µg/m3 20.1 °C 89.12 % 1,009.10 mbar 2.33 m/s 213.54 Deg 49.82 µg/m3
2022-11-18 23:00 43.38 µg/m3 -0.02 µg/m3 28.84 µg/m3 13.11 µg/m3 20.69 °C 85.6 % 1,009.27 mbar 1.85 m/s 209.11 Deg 16.88 µg/m3
2022-11-18 22:00 32.42 µg/m3 -0.14 µg/m3 25.91 µg/m3 11.61 µg/m3 21.08 °C 80.02 % 1,009.42 mbar 2.14 m/s 199.33 Deg 5.25 µg/m3
2022-11-18 21:00 26.87 µg/m3 0.11 µg/m3 22.56 µg/m3 9.91 µg/m3 21.23 °C 78.08 % 1,009.50 mbar 3.15 m/s 204.47 Deg 1.38 µg/m3
2022-11-18 20:00 25.21 µg/m3 -0.44 µg/m3 29.89 µg/m3 13.66 µg/m3 21.58 °C 83.25 % 1,009.25 mbar 4.07 m/s 214.88 Deg 2.17 µg/m3
2022-11-18 19:00 23.99 µg/m3 -0.44 µg/m3 34.57 µg/m3 16.05 µg/m3 21.74 °C 82.83 % 1,008.91 mbar 4.37 m/s 199.12 Deg 3.12 µg/m3
2022-11-18 18:00 24.14 µg/m3 -0.49 µg/m3 34.3 µg/m3 15.91 µg/m3 21.96 °C 81.54 % 1,008.47 mbar 4.56 m/s 209.49 Deg 1.74 µg/m3
2022-11-18 17:00 14.87 µg/m3 -0.39 µg/m3 28.24 µg/m3 12.5 µg/m3 22.49 °C 78.11 % 1,008.21 mbar 6.65 m/s 212.13 Deg 1.55 µg/m3
2022-11-18 16:00 13.03 µg/m3 -0.02 µg/m3 24.68 µg/m3 9.15 µg/m3 22.95 °C 73.53 % 1,007.99 mbar 7.63 m/s 213.17 Deg 3.27 µg/m3
2022-11-18 15:00 10.16 µg/m3 -0.62 µg/m3 16.89 µg/m3 6.32 µg/m3 23.25 °C 71.13 % 1,007.98 mbar 8.63 m/s 220.43 Deg 4.77 µg/m3
2022-11-18 14:00 9.3 µg/m3 -0.39 µg/m3 15.09 µg/m3 5.38 µg/m3 23.49 °C 65.87 % 1,007.87 mbar 7.64 m/s 234.43 Deg 5.15 µg/m3
2022-11-18 13:00 9.39 µg/m3 -0.59 µg/m3 15.72 µg/m3 5.38 µg/m3 23.57 °C 64.74 % 1,008.09 mbar 7.64 m/s 237.19 Deg 3.7 µg/m3
2022-11-18 12:00 8.72 µg/m3 -0.32 µg/m3 16.08 µg/m3 5.45 µg/m3 23.5 °C 65.07 % 1,008.63 mbar 7.38 m/s 246.43 Deg 3.84 µg/m3
2022-11-18 11:00 10.76 µg/m3 -0.5 µg/m3 15.32 µg/m3 5.44 µg/m3 23.18 °C 68.02 % 1,009.08 mbar 7.72 m/s 227.26 Deg 4.33 µg/m3
2022-11-18 10:00 11.35 µg/m3 -0.64 µg/m3 12.04 µg/m3 4.45 µg/m3 22.6 °C 72.74 % 1,008.89 mbar 7.65 m/s 219.78 Deg 3.96 µg/m3
2022-11-18 09:00 20.37 µg/m3 -0.52 µg/m3 µg/m3 µg/m3 22.03 °C 76.4 % 1,008.71 mbar 6.6 m/s 220.46 Deg 8.69 µg/m3
2022-11-18 08:00 43.37 µg/m3 -0.03 µg/m3 µg/m3 µg/m3 21.38 °C 78.32 % 1,008.21 mbar 5.22 m/s 216.04 Deg 20.01 µg/m3
2022-11-18 07:00 42.89 µg/m3 -0.2 µg/m3 µg/m3 µg/m3 20.68 °C 82.11 % 1,007.88 mbar 4.35 m/s 215.58 Deg 10.6 µg/m3
2022-11-18 06:00 29.77 µg/m3 -0.42 µg/m3 µg/m3 µg/m3 20.71 °C 78.57 % 1,007.63 mbar 4.48 m/s 223.73 Deg 6.88 µg/m3
2022-11-18 05:00 13.72 µg/m3 -0.55 µg/m3 µg/m3 µg/m3 20.77 °C 78.03 % 1,007.65 mbar 4.39 m/s 234.9 Deg 1.94 µg/m3
2022-11-18 04:00 11.43 µg/m3 -0.13 µg/m3 µg/m3 µg/m3 21.04 °C 78.84 % 1,007.57 mbar 5.86 m/s 228.13 Deg 1.26 µg/m3
2022-11-18 03:00 19.77 µg/m3 -0.38 µg/m3 µg/m3 µg/m3 20.59 °C 79.06 % 1,007.88 mbar 4.51 m/s 218.95 Deg 1.44 µg/m3
2022-11-18 02:00 46.19 µg/m3 -0.39 µg/m3 µg/m3 µg/m3 19.65 °C 81.68 % 1,008.00 mbar 2.73 m/s 198.02 Deg 8.78 µg/m3
2022-11-18 01:00 32.22 µg/m3 -0.52 µg/m3 µg/m3 µg/m3 19.18 °C 81.04 % 1,008.36 mbar 2.03 m/s 208.82 Deg 3.2 µg/m3
2022-11-18 00:00 40.17 µg/m3 -0.23 µg/m3 µg/m3 µg/m3 19.49 °C 80.04 % 1,008.64 mbar 2.3 m/s 210.12 Deg 5.68 µg/m3
2022-11-17 23:00 25.71 µg/m3 -0.37 µg/m3 µg/m3 µg/m3 19.72 °C 80.06 % 1,008.81 mbar 2.78 m/s 207.11 Deg 2.18 µg/m3
2022-11-17 22:00 38.34 µg/m3 -0.27 µg/m3 µg/m3 µg/m3 19.9 °C 79.7 % 1,008.71 mbar 2.55 m/s 213.74 Deg 2.35 µg/m3
2022-11-17 21:00 44.95 µg/m3 -0.12 µg/m3 µg/m3 µg/m3 20.19 °C 77.22 % 1,008.51 mbar 2.72 m/s 212.2 Deg 9.55 µg/m3
2022-11-17 20:00 34.58 µg/m3 -0.29 µg/m3 µg/m3 µg/m3 20.34 °C 77.75 % 1,008.24 mbar 2.19 m/s 248.41 Deg 3.12 µg/m3
2022-11-17 19:00 40.48 µg/m3 -0.1 µg/m3 µg/m3 µg/m3 20.5 °C 79.68 % 1,007.85 mbar 2.39 m/s 242.05 Deg 5.84 µg/m3
2022-11-17 18:00 33.41 µg/m3 -0.07 µg/m3 µg/m3 µg/m3 20.73 °C 78.83 % 1,007.44 mbar 2.78 m/s 237.29 Deg 5.77 µg/m3
2022-11-17 17:00 25.7 µg/m3 -0.04 µg/m3 µg/m3 µg/m3 21.02 °C 74.98 % 1,007.03 mbar 4.54 m/s 230.47 Deg 8.43 µg/m3
2022-11-17 16:00 16.62 µg/m3 -0.56 µg/m3 µg/m3 µg/m3 21.54 °C 72.44 % 1,006.71 mbar 5.92 m/s 233.25 Deg 3.98 µg/m3
2022-11-17 15:00 12.9 µg/m3 -0.55 µg/m3 µg/m3 µg/m3 21.5 °C 76.87 % 1,006.46 mbar 5 m/s 243.18 Deg 5.12 µg/m3
2022-11-17 14:00 18.56 µg/m3 -0.51 µg/m3 13.36 µg/m3 5.44 µg/m3 20.63 °C 80.5 % 1,006.75 mbar 4.55 m/s 234.53 Deg 6.27 µg/m3
2022-11-17 13:00 13.24 µg/m3 -0.27 µg/m3 13.03 µg/m3 5.29 µg/m3 20.92 °C 76.61 % 1,006.83 mbar 7.82 m/s 224.27 Deg 2.79 µg/m3
2022-11-17 12:00 13.81 µg/m3 -0.19 µg/m3 17.49 µg/m3 6.89 µg/m3 22.36 °C 68.17 % 1,007.00 mbar 5.91 m/s 211.74 Deg 3.61 µg/m3
2022-11-17 11:00 14.68 µg/m3 -0.53 µg/m3 18.39 µg/m3 7.3 µg/m3 22.22 °C 66.69 % 1,007.40 mbar 5.43 m/s 220.22 Deg 10.09 µg/m3
2022-11-17 10:00 53.91 µg/m3 0.5 µg/m3 35.66 µg/m3 13.65 µg/m3 21.24 °C 73.14 % 1,007.38 mbar 3.15 m/s 198.33 Deg 42.03 µg/m3
2022-11-17 09:00 83.67 µg/m3 4.15 µg/m3 50.63 µg/m3 24.29 µg/m3 19.03 °C 80.47 % 1,007.13 mbar 1.97 m/s 201.3 Deg 167.15 µg/m3
2022-11-17 08:00 70.22 µg/m3 5.66 µg/m3 42.6 µg/m3 20.19 µg/m3 18.2 °C 83.06 % 1,006.78 mbar 1.85 m/s 203.1 Deg 146.24 µg/m3
2022-11-17 07:00 58.11 µg/m3 0.63 µg/m3 30.54 µg/m3 14.24 µg/m3 17.6 °C 85.53 % 1,006.27 mbar 2.25 m/s 193.96 Deg 47.08 µg/m3
2022-11-17 06:00 43.64 µg/m3 -0.02 µg/m3 25.38 µg/m3 11.7 µg/m3 17.68 °C 88.19 % 1,006.07 mbar 2.64 m/s 209.18 Deg 14.15 µg/m3
2022-11-17 05:00 39.21 µg/m3 -0.27 µg/m3 25.2 µg/m3 11.48 µg/m3 17.87 °C 89.82 % 1,006.17 mbar 2.12 m/s 200.78 Deg 6.18 µg/m3
2022-11-17 04:00 48.5 µg/m3 0.61 µg/m3 27.08 µg/m3 12.57 µg/m3 17.75 °C 89.49 % 1,006.33 mbar 2.09 m/s 203.7 Deg 20.45 µg/m3
2022-11-17 03:00 46.75 µg/m3 1.24 µg/m3 26.19 µg/m3 11.89 µg/m3 18.24 °C 88.97 % 1,006.49 mbar 1.63 m/s 201.99 Deg 24.15 µg/m3
2022-11-17 02:00 29.13 µg/m3 0.48 µg/m3 24.44 µg/m3 10.88 µg/m3 18.84 °C 85.13 % 1,006.59 mbar 0.58 m/s 215.11 Deg 8.12 µg/m3
2022-11-17 01:00 48.7 µg/m3 1.62 µg/m3 26.9 µg/m3 12.18 µg/m3 18.81 °C 86.02 % 1,006.72 mbar 1.55 m/s 218.83 Deg 21.33 µg/m3
2022-11-17 00:00 51.11 µg/m3 1.26 µg/m3 26.55 µg/m3 12.02 µg/m3 19.02 °C 85.4 % 1,007.08 mbar 2.19 m/s 203.39 Deg 20.85 µg/m3
2022-11-16 23:00 49.35 µg/m3 0.41 µg/m3 26.75 µg/m3 12.15 µg/m3 19.37 °C 84.62 % 1,007.27 mbar 2.6 m/s 207.08 Deg 17.42 µg/m3
2022-11-16 22:00 48.67 µg/m3 0.83 µg/m3 28.02 µg/m3 12.76 µg/m3 19.33 °C 84.27 % 1,007.50 mbar 2.91 m/s 198.43 Deg 9.37 µg/m3
2022-11-16 21:00 57.78 µg/m3 0.84 µg/m3 31.97 µg/m3 14.73 µg/m3 19.51 °C 83.42 % 1,007.56 mbar 2.21 m/s 199.69 Deg 32.69 µg/m3
2022-11-16 20:00 80.69 µg/m3 1.86 µg/m3 34.52 µg/m3 16.02 µg/m3 20.18 °C 80.77 % 1,007.47 mbar 1.51 m/s 204.54 Deg 50.8 µg/m3
2022-11-16 19:00 71.45 µg/m3 0.64 µg/m3 36.78 µg/m3 13.91 µg/m3 20.86 °C 77.27 % 1,007.51 mbar 1.64 m/s 203.39 Deg 25.6 µg/m3
2022-11-16 18:00 53.14 µg/m3 0.34 µg/m3 35.39 µg/m3 12.26 µg/m3 21.46 °C 74.22 % 1,007.55 mbar 2.63 m/s 220.86 Deg 28.38 µg/m3
2022-11-16 17:00 31.66 µg/m3 0.06 µg/m3 27.38 µg/m3 10.39 µg/m3 22.1 °C 69.71 % 1,007.32 mbar 4.96 m/s 217.55 Deg 7.46 µg/m3
2022-11-16 16:00 26.39 µg/m3 0.14 µg/m3 24.75 µg/m3 9.44 µg/m3 22.56 °C 64.55 % 1,007.41 mbar 6 m/s 211.47 Deg 13.63 µg/m3
2022-11-16 15:00 21.71 µg/m3 0.13 µg/m3 22.69 µg/m3 9.09 µg/m3 22.73 °C 65.12 % 1,007.60 mbar 6.62 m/s 204.71 Deg 11.52 µg/m3
2022-11-16 14:00 16.94 µg/m3 0.04 µg/m3 25.56 µg/m3 9.72 µg/m3 22.92 °C 63.58 % 1,008.07 mbar 6.48 m/s 207 Deg 10.07 µg/m3
2022-11-16 13:00 21.44 µg/m3 0.45 µg/m3 25.3 µg/m3 9.82 µg/m3 23.06 °C 63.56 % 1,008.68 mbar 6.51 m/s 206.26 Deg 14.04 µg/m3
2022-11-16 12:00 59.04 µg/m3 1.56 µg/m3 32.91 µg/m3 12.01 µg/m3 23.27 °C 64.96 % 1,009.71 mbar 5.03 m/s 210.84 Deg 66.7 µg/m3
2022-11-16 11:00 50.5 µg/m3 2.55 µg/m3 31.63 µg/m3 12.23 µg/m3 22.95 °C 64.49 % 1,010.51 mbar 5.52 m/s 205.95 Deg 60.43 µg/m3
2022-11-16 10:00 54.9 µg/m3 3.57 µg/m3 38.31 µg/m3 14.94 µg/m3 22.67 °C 66.37 % 1,010.83 mbar 3.55 m/s 190.9 Deg 145.9 µg/m3
2022-11-16 09:00 67.33 µg/m3 1.78 µg/m3 30.55 µg/m3 10.61 µg/m3 21.96 °C 71.3 % 1,010.96 mbar 2.81 m/s 187.69 Deg 85.69 µg/m3
2022-11-16 08:00 70.34 µg/m3 2.75 µg/m3 25.82 µg/m3 9.8 µg/m3 21.11 °C 74.08 % 1,011.01 mbar 2.45 m/s 178.6 Deg 118.36 µg/m3
2022-11-16 07:00 52.24 µg/m3 0.39 µg/m3 18.98 µg/m3 7.8 µg/m3 20.86 °C 73.13 % 1,011.36 mbar 3.38 m/s 179.03 Deg 17.21 µg/m3
2022-11-16 06:00 36.01 µg/m3 0.14 µg/m3 15.21 µg/m3 6.33 µg/m3 20.8 °C 71.29 % 1,011.57 mbar 3.61 m/s 183.19 Deg 12.23 µg/m3
2022-11-16 05:00 40.58 µg/m3 0.64 µg/m3 14.53 µg/m3 5.84 µg/m3 20.52 °C 71.76 % 1,011.77 mbar 2.29 m/s 182.98 Deg 11.67 µg/m3
2022-11-16 04:00 49.81 µg/m3 0.73 µg/m3 13.55 µg/m3 5.67 µg/m3 20.45 °C 73.08 % 1,012.27 mbar 2.57 m/s 176.77 Deg 25.7 µg/m3
2022-11-16 03:00 60.42 µg/m3 0.7 µg/m3 13.65 µg/m3 5.7 µg/m3 20.46 °C 73.77 % 1,012.87 mbar 2.74 m/s 186 Deg 43.75 µg/m3
2022-11-16 02:00 31.55 µg/m3 0.22 µg/m3 13.58 µg/m3 5.66 µg/m3 20.43 °C 70.02 % 1,013.48 mbar 2.35 m/s 182.24 Deg 6.73 µg/m3
2022-11-16 01:00 37.8 µg/m3 -0.05 µg/m3 15.5 µg/m3 6.57 µg/m3 20.03 °C 74.04 % 1,014.12 mbar 2.1 m/s 189.31 Deg 8.38 µg/m3
2022-11-16 00:00 62.23 µg/m3 0.73 µg/m3 20.05 µg/m3 8.71 µg/m3 19.84 °C 76.04 % 1,014.74 mbar 1.36 m/s 181.81 Deg 27.62 µg/m3
2022-11-15 23:00 82.5 µg/m3 0.93 µg/m3 20.04 µg/m3 8.76 µg/m3 20.21 °C 72.79 % 1,015.20 mbar 1.56 m/s 176.78 Deg 84.62 µg/m3
2022-11-15 22:00 86 µg/m3 -0.02 µg/m3 18.9 µg/m3 8.15 µg/m3 20.34 °C 72.6 % 1,015.72 mbar 1.51 m/s 179.57 Deg 80.42 µg/m3
2022-11-15 21:00 60.67 µg/m3 1.47 µg/m3 33.18 µg/m3 15.38 µg/m3 19.29 °C 83.51 % 1,015.83 mbar 2.17 m/s 215.38 Deg 73.75 µg/m3
2022-11-15 20:00 65.76 µg/m3 2.54 µg/m3 32.25 µg/m3 14.87 µg/m3 19.64 °C 81.46 % 1,015.95 mbar 1.53 m/s 209.01 Deg 101.43 µg/m3
2022-11-15 19:00 64.3 µg/m3 1.14 µg/m3 41.23 µg/m3 11.12 µg/m3 20.72 °C 75.03 % 1,015.96 mbar 0.81 m/s 205.83 Deg 46.22 µg/m3
2022-11-15 18:00 52.03 µg/m3 -0.05 µg/m3 34.83 µg/m3 8.99 µg/m3 21.29 °C 70.79 % 1,015.82 mbar 1.41 m/s 192.12 Deg 9.56 µg/m3
2022-11-15 17:00 30.76 µg/m3 -0.13 µg/m3 18.77 µg/m3 5.85 µg/m3 21.89 °C 68.16 % 1,015.92 mbar 3.45 m/s 208.77 Deg 5.87 µg/m3
2022-11-15 16:00 18.34 µg/m3 -0.13 µg/m3 14.51 µg/m3 4.8 µg/m3 22.27 °C 64.91 % 1,016.20 mbar 4.37 m/s 208.39 Deg 8.36 µg/m3
2022-11-15 15:00 10.66 µg/m3 -0.21 µg/m3 13.1 µg/m3 4.11 µg/m3 22.31 °C 64.01 % 1,016.40 mbar 4.85 m/s 210.38 Deg 4.43 µg/m3
2022-11-15 14:00 11.76 µg/m3 -0.2 µg/m3 13.22 µg/m3 4.34 µg/m3 22.28 °C 64.75 % 1,016.90 mbar 4.73 m/s 206.53 Deg 5.17 µg/m3
2022-11-15 13:00 12.48 µg/m3 -0.44 µg/m3 13.65 µg/m3 4.65 µg/m3 22.22 °C 64.86 % 1,017.49 mbar 4.55 m/s 206.38 Deg 4.73 µg/m3
2022-11-15 12:00 19.15 µg/m3 -0.28 µg/m3 14.03 µg/m3 5.13 µg/m3 21.98 °C 68.47 % 1,018.20 mbar 4.44 m/s 221.61 Deg 8.08 µg/m3
2022-11-15 11:00 0 µg/m3 0.2 µg/m3 16.13 µg/m3 6.17 µg/m3 21.83 °C 69.62 % 1,018.64 mbar 4.04 m/s 205.31 Deg 0 µg/m3
2022-11-15 10:00 0 µg/m3 5.12 µg/m3 52.64 µg/m3 24.43 µg/m3 20.26 °C 79.18 % 1,018.78 mbar 1.34 m/s 191.54 Deg 0 µg/m3
2022-11-15 09:00 88.65 µg/m3 6.04 µg/m3 62.21 µg/m3 30.46 µg/m3 17.71 °C 88.37 % 1,018.74 mbar 1.47 m/s 190.33 Deg 250.02 µg/m3
2022-11-15 08:00 67.25 µg/m3 4.79 µg/m3 43.73 µg/m3 21.28 µg/m3 16.28 °C 93.08 % 1,018.56 mbar 1.45 m/s 199.83 Deg 179.09 µg/m3
2022-11-15 07:00 54.85 µg/m3 1.78 µg/m3 35.98 µg/m3 17.68 µg/m3 15.92 °C 94.34 % 1,018.40 mbar 1.77 m/s 199.41 Deg 116.51 µg/m3
2022-11-15 06:00 45.25 µg/m3 0.03 µg/m3 24.95 µg/m3 12.95 µg/m3 15.98 °C 94.92 % 1,018.45 mbar 1.99 m/s 205.71 Deg 35.2 µg/m3
2022-11-15 05:00 38.11 µg/m3 0.89 µg/m3 24 µg/m3 12.54 µg/m3 16.12 °C 94.63 % 1,018.54 mbar 1.65 m/s 198.98 Deg 27.2 µg/m3
2022-11-15 04:00 47.49 µg/m3 1.4 µg/m3 23.27 µg/m3 11.87 µg/m3 16.44 °C 94.03 % 1,018.70 mbar 1.45 m/s 194.35 Deg 42.76 µg/m3
2022-11-15 03:00 45.46 µg/m3 0.71 µg/m3 22.67 µg/m3 11.24 µg/m3 16.51 °C 93.16 % 1,018.86 mbar 1.75 m/s 202.58 Deg 16.81 µg/m3
2022-11-15 02:00 43.8 µg/m3 2.33 µg/m3 24.02 µg/m3 11.79 µg/m3 16.63 °C 92.53 % 1,019.18 mbar 1.7 m/s 211.78 Deg 35.09 µg/m3
2022-11-15 01:00 55.73 µg/m3 1.76 µg/m3 26.08 µg/m3 12.51 µg/m3 17.12 °C 91.41 % 1,019.34 mbar 1.1 m/s 195.86 Deg 49.18 µg/m3
2022-11-15 00:00 52.07 µg/m3 2.42 µg/m3 27.89 µg/m3 13.74 µg/m3 17.33 °C 92.16 % 1,019.61 mbar 1.83 m/s 213.49 Deg 56.41 µg/m3
2022-11-14 23:00 61.9 µg/m3 1.82 µg/m3 29.12 µg/m3 14.28 µg/m3 18.08 °C 90.39 % 1,019.86 mbar 1.45 m/s 205.32 Deg 51.13 µg/m3
2022-11-14 22:00 66.82 µg/m3 3.66 µg/m3 38.12 µg/m3 18.44 µg/m3 18.51 °C 88.75 % 1,020.03 mbar 1.53 m/s 209.3 Deg 87.65 µg/m3
2022-11-14 21:00 66.17 µg/m3 4.72 µg/m3 42.01 µg/m3 19.96 µg/m3 18.26 °C 88.12 % 1,020.04 mbar 2.58 m/s 216.17 Deg 121.49 µg/m3
2022-11-14 20:00 69.57 µg/m3 3.5 µg/m3 32.58 µg/m3 15.04 µg/m3 18.9 °C 84.48 % 1,019.91 mbar 1.72 m/s 206.33 Deg 77.07 µg/m3
2022-11-14 19:00 76.47 µg/m3 2.45 µg/m3 26.53 µg/m3 11.93 µg/m3 19.08 °C 82.23 % 1,019.74 mbar 2.44 m/s 208.91 Deg 80.23 µg/m3
2022-11-14 18:00 76.38 µg/m3 7.54 µg/m3 31.88 µg/m3 10.59 µg/m3 19.8 °C 77.19 % 1,019.37 mbar 1.3 m/s 192.07 Deg 51.18 µg/m3
2022-11-14 17:00 65.81 µg/m3 2.33 µg/m3 31.79 µg/m3 9.05 µg/m3 20.65 °C 72.74 % 1,019.26 mbar 1.16 m/s 208.29 Deg 42.24 µg/m3
2022-11-14 16:00 42.94 µg/m3 3.48 µg/m3 21.67 µg/m3 6.16 µg/m3 21.54 °C 66.37 % 1,019.44 mbar 1.08 m/s 185.38 Deg 9.59 µg/m3
2022-11-14 15:00 30.32 µg/m3 -0.1 µg/m3 18.07 µg/m3 5.63 µg/m3 20.82 °C 72.18 % 1,019.47 mbar 0.7 m/s 207.85 Deg 7.21 µg/m3
2022-11-14 14:00 42.32 µg/m3 0.03 µg/m3 16.81 µg/m3 7.02 µg/m3 19.16 °C 82.81 % 1,019.60 mbar 0.55 m/s 223.47 Deg 13.02 µg/m3
2022-11-14 13:00 34.63 µg/m3 0.15 µg/m3 18.05 µg/m3 7.62 µg/m3 18.08 °C 85.66 % 1,020.38 mbar 0.6 m/s 238.1 Deg 25.16 µg/m3
2022-11-14 12:00 18.87 µg/m3 -0.1 µg/m3 23.38 µg/m3 10.36 µg/m3 18 °C 86.94 % 1,021.25 mbar 0.74 m/s 284.03 Deg 2.13 µg/m3
2022-11-14 11:00 17.63 µg/m3 0 µg/m3 22.3 µg/m3 9.86 µg/m3 18.7 °C 81.17 % 1,021.04 mbar 1.82 m/s 278.7 Deg 2 µg/m3
2022-11-14 10:00 20.65 µg/m3 0 µg/m3 15.59 µg/m3 6.38 µg/m3 20.31 °C 81.59 % 1,020.53 mbar 0.92 m/s 92.99 Deg 3.62 µg/m3
2022-11-14 09:00 66.95 µg/m3 3.88 µg/m3 21.2 µg/m3 9.21 µg/m3 20.04 °C 81.54 % 1,020.10 mbar 0.77 m/s 50.31 Deg 27.86 µg/m3
2022-11-14 08:00 61.4 µg/m3 3.98 µg/m3 18.25 µg/m3 7.72 µg/m3 19.74 °C 79.97 % 1,019.58 mbar 1.33 m/s 162.92 Deg 16.22 µg/m3
2022-11-14 07:00 60.49 µg/m3 4.17 µg/m3 16.12 µg/m3 6.65 µg/m3 19.42 °C 81.36 % 1,019.19 mbar 1.83 m/s 177.71 Deg 24.07 µg/m3
2022-11-14 06:00 45.95 µg/m3 3.55 µg/m3 14.1 µg/m3 5.84 µg/m3 19.31 °C 82.19 % 1,019.08 mbar 1.91 m/s 181.72 Deg 9.58 µg/m3
2022-11-14 05:00 50.71 µg/m3 3.96 µg/m3 16.12 µg/m3 7.22 µg/m3 18.75 °C 84.91 % 1,019.07 mbar 1.17 m/s 173.73 Deg 26.69 µg/m3
2022-11-14 04:00 42.53 µg/m3 3.61 µg/m3 15.13 µg/m3 6.74 µg/m3 18.36 °C 86.85 % 1,019.05 mbar 0.14 m/s 258.24 Deg 2.15 µg/m3
2022-11-14 03:00 50.43 µg/m3 3.09 µg/m3 16.16 µg/m3 7.22 µg/m3 18.41 °C 87.39 % 1,019.21 mbar 0.6 m/s 180.3 Deg 21.56 µg/m3
2022-11-14 02:00 32.72 µg/m3 2.63 µg/m3 14.81 µg/m3 6.51 µg/m3 19.08 °C 82.61 % 1,019.42 mbar 0.9 m/s 158.7 Deg 1.18 µg/m3
2022-11-14 01:00 43.45 µg/m3 3.23 µg/m3 14.71 µg/m3 6.77 µg/m3 19.07 °C 81.76 % 1,019.36 mbar 1.54 m/s 175.06 Deg 10.82 µg/m3
2022-11-14 00:00 41.19 µg/m3 3.08 µg/m3 14.66 µg/m3 6.51 µg/m3 18.78 °C 80.38 % 1,019.48 mbar 1.61 m/s 169.06 Deg 7.48 µg/m3
2022-11-13 23:00 54.7 µg/m3 4.29 µg/m3 33.77 µg/m3 16.01 µg/m3 17.4 °C 88.46 % 1,019.84 mbar 1.03 m/s 203.87 Deg 62.95 µg/m3
2022-11-13 22:00 52.84 µg/m3 4.26 µg/m3 39.56 µg/m3 18.78 µg/m3 17.66 °C 87.99 % 1,020.17 mbar 1.21 m/s 187.95 Deg 79.49 µg/m3
2022-11-13 21:00 59.33 µg/m3 4.07 µg/m3 40 µg/m3 18.85 µg/m3 17.94 °C 86.91 % 1,020.11 mbar 1.32 m/s 202.03 Deg 73.28 µg/m3
2022-11-13 20:00 71.58 µg/m3 4.46 µg/m3 36.89 µg/m3 17.24 µg/m3 18.63 °C 84.36 % 1,019.80 mbar 0.48 m/s 194.84 Deg 74.86 µg/m3
2022-11-13 19:00 69.77 µg/m3 3.91 µg/m3 31.22 µg/m3 14.36 µg/m3 19.44 °C 77.83 % 1,019.59 mbar 0.24 m/s 231.56 Deg 33.55 µg/m3
2022-11-13 18:00 45.57 µg/m3 3.99 µg/m3 33.14 µg/m3 10.95 µg/m3 19.83 °C 74.83 % 1,018.99 mbar 0.06 m/s 174.14 Deg 5.42 µg/m3
2022-11-13 17:00 13.18 µg/m3 3.6 µg/m3 17.27 µg/m3 5.43 µg/m3 20.77 °C 68.82 % 1,018.88 mbar 0.32 m/s 233.57 Deg 0.28 µg/m3
2022-11-13 16:00 10.8 µg/m3 3.3 µg/m3 20.73 µg/m3 6.45 µg/m3 20.75 °C 69.11 % 1,018.88 mbar 0.29 m/s 187.5 Deg 0.4 µg/m3
2022-11-13 15:00 13.77 µg/m3 3.23 µg/m3 21.31 µg/m3 7.15 µg/m3 20.9 °C 70.4 % 1,018.63 mbar 0.55 m/s 59.59 Deg 0.74 µg/m3
2022-11-13 14:00 22.67 µg/m3 3.44 µg/m3 23.48 µg/m3 7.47 µg/m3 21.59 °C 69.25 % 1,018.39 mbar 0.61 m/s 241.68 Deg 2.54 µg/m3
2022-11-13 13:00 18.92 µg/m3 3.52 µg/m3 25.33 µg/m3 7.7 µg/m3 21.08 °C 70.1 % 1,018.68 mbar 0.6 m/s 206.4 Deg 4.42 µg/m3
2022-11-13 12:00 31.96 µg/m3 3.71 µg/m3 21.27 µg/m3 7.59 µg/m3 20.19 °C 72.97 % 1,019.05 mbar 0.78 m/s 222.19 Deg 6.28 µg/m3
2022-11-13 11:00 42.38 µg/m3 3.8 µg/m3 19.83 µg/m3 8.41 µg/m3 19.65 °C 74.42 % 1,019.14 mbar 0.23 m/s 174.01 Deg 10.42 µg/m3
2022-11-13 10:00 61.89 µg/m3 4.58 µg/m3 26.93 µg/m3 13.02 µg/m3 18.57 °C 86.33 % 1,018.71 mbar 0.91 m/s 191.7 Deg 46.82 µg/m3
2022-11-13 09:00 58.26 µg/m3 4.84 µg/m3 25.39 µg/m3 12.97 µg/m3 17.17 °C 91.85 % 1,018.38 mbar 1.45 m/s 204.79 Deg 63.57 µg/m3
2022-11-13 08:00 59.11 µg/m3 4.32 µg/m3 19.37 µg/m3 9.4 µg/m3 16.78 °C 91.83 % 1,017.88 mbar 1.36 m/s 193.87 Deg 45.78 µg/m3
2022-11-13 07:00 54.3 µg/m3 3.67 µg/m3 15.85 µg/m3 6.94 µg/m3 17.19 °C 89.61 % 1,017.40 mbar 1.05 m/s 216.33 Deg 21.02 µg/m3
2022-11-13 06:00 25.27 µg/m3 2.53 µg/m3 12.88 µg/m3 5.19 µg/m3 17.41 °C 87.72 % 1,016.90 mbar 0.69 m/s 225.26 Deg 0.62 µg/m3
2022-11-13 05:00 4.01 µg/m3 2.47 µg/m3 12.08 µg/m3 4.62 µg/m3 17.38 °C 85.31 % 1,016.82 mbar 0.92 m/s 289.3 Deg -0.18 µg/m3
2022-11-13 04:00 8.13 µg/m3 2.44 µg/m3 13.32 µg/m3 5.62 µg/m3 17.46 °C 88.52 % 1,016.69 mbar 2.03 m/s 292.29 Deg -0.21 µg/m3
2022-11-13 03:00 18.43 µg/m3 2.32 µg/m3 11.96 µg/m3 5.31 µg/m3 17.68 °C 88.22 % 1,016.68 mbar 0.54 m/s 256.53 Deg -0.28 µg/m3
2022-11-13 02:00 3.46 µg/m3 2.02 µg/m3 11.33 µg/m3 5.13 µg/m3 17.18 °C 90.6 % 1,016.91 mbar 0.42 m/s 324.3 Deg -0.5 µg/m3
2022-11-13 01:00 5.03 µg/m3 1.96 µg/m3 11.15 µg/m3 5.02 µg/m3 16.95 °C 91.22 % 1,017.22 mbar 0.5 m/s 242.88 Deg -0.52 µg/m3
2022-11-13 00:00 8.81 µg/m3 2.05 µg/m3 10.89 µg/m3 4.94 µg/m3 16.97 °C 92.45 % 1,017.70 mbar 0.67 m/s 242.28 Deg -0.07 µg/m3
2022-11-12 23:00 23.96 µg/m3 1.54 µg/m3 11.52 µg/m3 5.41 µg/m3 16.86 °C 93.44 % 1,018.08 mbar 0.78 m/s 250.14 Deg 0.52 µg/m3
2022-11-12 22:00 26.58 µg/m3 1.11 µg/m3 14.95 µg/m3 7.81 µg/m3 16.74 °C 94.3 % 1,018.26 mbar 1.74 m/s 143.24 Deg 4.61 µg/m3
2022-11-12 21:00 34.36 µg/m3 2.79 µg/m3 13.06 µg/m3 6.27 µg/m3 16.1 °C 94.37 % 1,018.30 mbar 0.93 m/s 178.63 Deg 3.17 µg/m3
2022-11-12 20:00 24.72 µg/m3 3.22 µg/m3 18.82 µg/m3 10.18 µg/m3 16.78 °C 93.78 % 1,018.50 mbar 3.11 m/s 217.13 Deg 0.17 µg/m3
2022-11-12 19:00 42.35 µg/m3 3.67 µg/m3 21 µg/m3 11.4 µg/m3 17.22 °C 92.15 % 1,018.69 mbar 2.34 m/s 202.98 Deg 2.78 µg/m3
2022-11-12 18:00 43.92 µg/m3 3.59 µg/m3 17.85 µg/m3 9.24 µg/m3 17.19 °C 90.52 % 1,018.81 mbar 2.45 m/s 208.13 Deg 2.37 µg/m3
2022-11-12 17:00 34.15 µg/m3 3.8 µg/m3 13.92 µg/m3 6.77 µg/m3 16.73 °C 89.99 % 1,019.19 mbar 2.9 m/s 199.16 Deg 3.74 µg/m3
2022-11-12 16:00 24.52 µg/m3 3.77 µg/m3 26.97 µg/m3 14.07 µg/m3 17.12 °C 92.53 % 1,019.75 mbar 2.52 m/s 204.76 Deg 5.51 µg/m3
2022-11-12 15:00 21.61 µg/m3 2.9 µg/m3 24.19 µg/m3 11.8 µg/m3 19.04 °C 84.52 % 1,019.95 mbar 0.51 m/s 227.49 Deg 1.96 µg/m3
2022-11-12 14:00 28.61 µg/m3 3.22 µg/m3 24.17 µg/m3 12.24 µg/m3 18.86 °C 84.48 % 1,020.59 mbar 0.5 m/s 338.13 Deg 3.82 µg/m3
2022-11-12 13:00 29.69 µg/m3 3.29 µg/m3 31.68 µg/m3 14.41 µg/m3 19.31 °C 79.84 % 1,021.47 mbar 1.12 m/s 228.12 Deg 3.28 µg/m3
2022-11-12 12:00 15.03 µg/m3 4.02 µg/m3 26.61 µg/m3 9.26 µg/m3 20.63 °C 70.53 % 1,022.20 mbar 0.23 m/s 193.55 Deg 1.4 µg/m3
2022-11-12 11:00 14.32 µg/m3 4.08 µg/m3 25.56 µg/m3 8.62 µg/m3 20.76 °C 69.3 % 1,022.85 mbar 0.46 m/s 309.06 Deg 1.4 µg/m3
2022-11-12 10:00 28.28 µg/m3 3.75 µg/m3 29.86 µg/m3 9.49 µg/m3 20.57 °C 70.51 % 1,022.87 mbar 0.49 m/s 90.32 Deg 8.86 µg/m3
2022-11-12 09:00 52.52 µg/m3 3.78 µg/m3 65.62 µg/m3 18.63 µg/m3 19.7 °C 75.15 % 1,022.90 mbar 0.88 m/s 218.81 Deg 60.09 µg/m3
2022-11-12 08:00 40.32 µg/m3 2.39 µg/m3 31.72 µg/m3 11.35 µg/m3 19.53 °C 74.09 % 1,022.56 mbar 0.59 m/s 264.91 Deg 13.27 µg/m3
2022-11-12 07:00 35.11 µg/m3 4.02 µg/m3 22.07 µg/m3 8.97 µg/m3 19.54 °C 73.03 % 1,022.41 mbar 0.57 m/s 201.15 Deg 6.29 µg/m3
2022-11-12 06:00 16.91 µg/m3 1.92 µg/m3 17.72 µg/m3 7.43 µg/m3 19.63 °C 73.2 % 1,022.67 mbar 0.71 m/s 296.45 Deg 0.26 µg/m3
2022-11-12 05:00 26.08 µg/m3 1.98 µg/m3 18.58 µg/m3 7.71 µg/m3 19.48 °C 74.12 % 1,022.96 mbar 0.53 m/s 311.98 Deg 0.34 µg/m3
2022-11-12 04:00 23.51 µg/m3 1.87 µg/m3 18.14 µg/m3 7.24 µg/m3 19.65 °C 73.28 % 1,023.33 mbar 0.47 m/s 311.45 Deg -0.02 µg/m3
2022-11-12 03:00 11.76 µg/m3 1.92 µg/m3 15.98 µg/m3 6.56 µg/m3 19.97 °C 72.06 % 1,023.87 mbar 0.89 m/s 267.4 Deg -0.57 µg/m3
2022-11-12 02:00 5.23 µg/m3 1.73 µg/m3 16.12 µg/m3 6.66 µg/m3 20.09 °C 72.79 % 1,024.30 mbar 0.95 m/s 208.68 Deg -0.58 µg/m3
2022-11-12 01:00 9.45 µg/m3 1.04 µg/m3 17.51 µg/m3 7 µg/m3 20.06 °C 73.31 % 1,024.51 mbar 0.91 m/s 219 Deg -0.42 µg/m3
2022-11-12 00:00 11.77 µg/m3 1.3 µg/m3 18.16 µg/m3 7.18 µg/m3 20.12 °C 73.15 % 1,024.61 mbar 0.82 m/s 256.86 Deg 0.19 µg/m3
2022-11-11 23:00 14.28 µg/m3 0.89 µg/m3 18.9 µg/m3 7.2 µg/m3 20.34 °C 74.14 % 1,024.76 mbar 0.98 m/s 298.43 Deg -0.2 µg/m3
2022-11-11 22:00 10.66 µg/m3 1.61 µg/m3 18.46 µg/m3 6.93 µg/m3 20.39 °C 72.99 % 1,024.82 mbar 0.91 m/s 293.16 Deg 0.49 µg/m3
2022-11-11 21:00 19.93 µg/m3 2.96 µg/m3 19.34 µg/m3 7.23 µg/m3 20.52 °C 73.33 % 1,024.57 mbar 0.72 m/s 184.33 Deg 0.38 µg/m3
2022-11-11 20:00 24.06 µg/m3 2.99 µg/m3 18.7 µg/m3 6.67 µg/m3 20.55 °C 75.46 % 1,024.33 mbar 0.76 m/s 199.76 Deg 1.78 µg/m3
2022-11-11 19:00 27.4 µg/m3 2.81 µg/m3 13.51 µg/m3 4.47 µg/m3 20.56 °C 74.41 % 1,024.31 mbar 1.01 m/s 151.53 Deg 2.87 µg/m3
2022-11-11 18:00 16.9 µg/m3 1.91 µg/m3 16.26 µg/m3 4.2 µg/m3 20.51 °C 72.38 % 1,024.06 mbar 0.94 m/s 267.34 Deg 0.98 µg/m3
2022-11-11 17:00 17 µg/m3 2.01 µg/m3 15.26 µg/m3 4.07 µg/m3 20.89 °C 69.23 % 1,024.04 mbar 1 m/s 109.83 Deg 2.51 µg/m3
2022-11-11 16:00 13.83 µg/m3 1.79 µg/m3 17.96 µg/m3 4.09 µg/m3 21.79 °C 65.64 % 1,024.12 mbar 0.91 m/s 185.81 Deg 0.85 µg/m3
2022-11-11 15:00 9.03 µg/m3 3.05 µg/m3 13.8 µg/m3 3.49 µg/m3 21.99 °C 63.6 % 1,024.15 mbar 0.9 m/s 309.6 Deg 1.31 µg/m3
2022-11-11 14:00 14.87 µg/m3 2.96 µg/m3 14.7 µg/m3 3.68 µg/m3 21.86 °C 63.8 % 1,024.21 mbar 0.95 m/s 324.87 Deg 2.16 µg/m3
2022-11-11 13:00 9.6 µg/m3 2.97 µg/m3 20.25 µg/m3 4.16 µg/m3 21.69 °C 64.09 % 1,024.48 mbar 1 m/s 27.4 Deg 1.01 µg/m3
2022-11-11 12:00 14.57 µg/m3 3.4 µg/m3 18.78 µg/m3 4.18 µg/m3 21.59 °C 64.31 % 1,024.78 mbar 0.91 m/s 85.05 Deg 2.22 µg/m3
2022-11-11 11:00 16.04 µg/m3 3.23 µg/m3 22.53 µg/m3 4.98 µg/m3 21.32 °C 66.53 % 1,024.93 mbar 0.82 m/s 264.92 Deg 2.43 µg/m3
2022-11-11 10:00 21.01 µg/m3 2.26 µg/m3 16.53 µg/m3 4.37 µg/m3 20.62 °C 73.75 % 1,024.87 mbar 0.86 m/s 222.55 Deg 3 µg/m3
2022-11-11 09:00 42.83 µg/m3 2.03 µg/m3 18.11 µg/m3 6.84 µg/m3 20.09 °C 77.01 % 1,024.50 mbar 0.6 m/s 172.23 Deg 15.73 µg/m3
2022-11-11 08:00 66.37 µg/m3 5.56 µg/m3 40.12 µg/m3 18.9 µg/m3 17.6 °C 85.62 % 1,023.98 mbar 1.15 m/s 209.63 Deg 157.74 µg/m3
2022-11-11 07:00 54.59 µg/m3 4.12 µg/m3 32.96 µg/m3 15.65 µg/m3 16.61 °C 87.62 % 1,023.48 mbar 1.52 m/s 182.26 Deg 125.45 µg/m3
2022-11-11 06:00 47.27 µg/m3 2.62 µg/m3 24.22 µg/m3 12.09 µg/m3 16.3 °C 87.79 % 1,023.32 mbar 1.73 m/s 188.29 Deg 40.53 µg/m3
2022-11-11 05:00 38 µg/m3 1.72 µg/m3 20.64 µg/m3 10.58 µg/m3 16.03 °C 86.82 % 1,023.32 mbar 1.95 m/s 204.48 Deg 9 µg/m3
2022-11-11 04:00 33.86 µg/m3 1.52 µg/m3 20.1 µg/m3 10.23 µg/m3 16.13 °C 86.41 % 1,023.15 mbar 1.95 m/s 205.56 Deg 2.13 µg/m3
2022-11-11 03:00 38.06 µg/m3 1.71 µg/m3 18.32 µg/m3 8.65 µg/m3 16.3 °C 85.78 % 1,023.13 mbar 1.91 m/s 209.5 Deg 1.96 µg/m3
2022-11-11 02:00 43.1 µg/m3 1.9 µg/m3 19.98 µg/m3 9.4 µg/m3 16.44 °C 84.41 % 1,023.28 mbar 1.96 m/s 208.94 Deg 18.67 µg/m3
2022-11-11 01:00 44.03 µg/m3 2.07 µg/m3 22.45 µg/m3 10.71 µg/m3 16.67 °C 83.86 % 1,023.24 mbar 1.91 m/s 206.09 Deg 20.83 µg/m3
2022-11-11 00:00 48.31 µg/m3 2.83 µg/m3 24.69 µg/m3 11.59 µg/m3 17.18 °C 82.59 % 1,023.29 mbar 1.79 m/s 208.5 Deg 20.09 µg/m3
2022-11-10 23:00 53.54 µg/m3 3.59 µg/m3 32.49 µg/m3 15.52 µg/m3 17.49 °C 81.9 % 1,023.12 mbar 1.88 m/s 206.22 Deg 39 µg/m3
2022-11-10 22:00 57.57 µg/m3 4.3 µg/m3 40.07 µg/m3 19.11 µg/m3 18.04 °C 80.58 % 1,022.75 mbar 1.66 m/s 207.66 Deg 52.15 µg/m3
2022-11-10 21:00 65.03 µg/m3 3.76 µg/m3 36.92 µg/m3 16.21 µg/m3 18.86 °C 78.73 % 1,022.13 mbar 1.62 m/s 204.63 Deg 54.37 µg/m3
2022-11-10 20:00 55.53 µg/m3 2.72 µg/m3 37.47 µg/m3 9.82 µg/m3 20 °C 72.58 % 1,021.66 mbar 0.45 m/s 239.83 Deg 22.29 µg/m3
2022-11-10 19:00 24.09 µg/m3 2.35 µg/m3 20.38 µg/m3 5.44 µg/m3 20.3 °C 68.95 % 1,021.08 mbar 0.26 m/s 143.99 Deg 0.29 µg/m3
2022-11-10 18:00 22.46 µg/m3 2.42 µg/m3 21.51 µg/m3 5.8 µg/m3 20.62 °C 67.79 % 1,020.61 mbar 0.54 m/s 172.67 Deg 0.96 µg/m3
2022-11-10 17:00 10.96 µg/m3 3.32 µg/m3 18.13 µg/m3 4.52 µg/m3 21.32 °C 65.57 % 1,020.35 mbar 0.68 m/s 209.17 Deg 0.05 µg/m3
2022-11-10 16:00 13.04 µg/m3 3.43 µg/m3 27.43 µg/m3 5.09 µg/m3 22.41 °C 62.59 % 1,020.21 mbar 0.58 m/s 248.94 Deg 1.51 µg/m3
2022-11-10 15:00 14.44 µg/m3 3.64 µg/m3 29.05 µg/m3 5.21 µg/m3 22.62 °C 61.22 % 1,020.08 mbar 0.58 m/s 203.75 Deg 2.12 µg/m3
2022-11-10 14:00 16.17 µg/m3 3.67 µg/m3 19.27 µg/m3 4.24 µg/m3 22.45 °C 61.37 % 1,020.06 mbar 0.66 m/s 293.94 Deg 2.69 µg/m3
2022-11-10 13:00 15.85 µg/m3 3.64 µg/m3 18.38 µg/m3 4.3 µg/m3 22.66 °C 61.92 % 1,020.25 mbar 0.71 m/s 290.98 Deg 2.98 µg/m3
2022-11-10 12:00 17.86 µg/m3 3.59 µg/m3 23.37 µg/m3 4.76 µg/m3 22.38 °C 64.3 % 1,020.31 mbar 0.59 m/s 232.68 Deg 4.21 µg/m3
2022-11-10 11:00 20.11 µg/m3 3.7 µg/m3 42.6 µg/m3 7.02 µg/m3 21.38 °C 69.11 % 1,020.28 mbar 0.61 m/s 304.76 Deg 3.91 µg/m3
2022-11-10 10:00 37.22 µg/m3 4.73 µg/m3 26.86 µg/m3 7.72 µg/m3 20.57 °C 74.34 % 1,020.02 mbar 0.31 m/s 259.52 Deg 32.25 µg/m3
2022-11-10 09:00 82.92 µg/m3 9.6 µg/m3 56.34 µg/m3 27.21 µg/m3 18.19 °C 83.41 % 1,019.68 mbar 0.75 m/s 213.52 Deg 218.67 µg/m3
2022-11-10 08:00 60.69 µg/m3 8.82 µg/m3 43.43 µg/m3 20.63 µg/m3 16.37 °C 87.99 % 1,019.22 mbar 1.74 m/s 207.73 Deg 208.8 µg/m3
2022-11-10 07:00 49.83 µg/m3 5.91 µg/m3 26.54 µg/m3 12.44 µg/m3 15.71 °C 89.9 % 1,018.79 mbar 1.88 m/s 204.73 Deg 103.14 µg/m3
2022-11-10 06:00 40.06 µg/m3 4.63 µg/m3 20.02 µg/m3 9.48 µg/m3 15.74 °C 88.62 % 1,018.52 mbar 1.87 m/s 209.33 Deg 28.88 µg/m3
2022-11-10 05:00 40.82 µg/m3 4.67 µg/m3 18.4 µg/m3 8.91 µg/m3 15.79 °C 88.24 % 1,018.45 mbar 2.02 m/s 207.56 Deg 31.86 µg/m3
2022-11-10 04:00 42.36 µg/m3 4.38 µg/m3 18.77 µg/m3 9 µg/m3 15.97 °C 86.77 % 1,018.42 mbar 2.06 m/s 206.43 Deg 21.24 µg/m3
2022-11-10 03:00 50.11 µg/m3 4.73 µg/m3 20.07 µg/m3 9.55 µg/m3 16.16 °C 86.14 % 1,018.50 mbar 2.06 m/s 209.71 Deg 34.26 µg/m3
2022-11-10 02:00 48.28 µg/m3 5.37 µg/m3 24.95 µg/m3 11.78 µg/m3 16.45 °C 85.84 % 1,018.74 mbar 1.84 m/s 207.33 Deg 52.91 µg/m3
2022-11-10 01:00 49.66 µg/m3 4.81 µg/m3 26.3 µg/m3 12.47 µg/m3 16.63 °C 84.76 % 1,018.75 mbar 1.83 m/s 208.24 Deg 57.72 µg/m3
2022-11-10 00:00 52.24 µg/m3 3.55 µg/m3 31.23 µg/m3 14.92 µg/m3 16.88 °C 83.37 % 1,018.91 mbar 1.8 m/s 209.64 Deg 61.11 µg/m3
2022-11-09 23:00 57.54 µg/m3 3.77 µg/m3 34.89 µg/m3 16.56 µg/m3 17.18 °C 80.51 % 1,019.01 mbar 1.77 m/s 208.26 Deg 70.81 µg/m3
2022-11-09 22:00 63.72 µg/m3 5.23 µg/m3 46.29 µg/m3 18.9 µg/m3 17.72 °C 76.95 % 1,018.98 mbar 1.69 m/s 209.24 Deg 94.44 µg/m3
2022-11-09 21:00 70.86 µg/m3 6.88 µg/m3 66.31 µg/m3 21.2 µg/m3 18.47 °C 73.56 % 1,018.80 mbar 1.42 m/s 207.14 Deg 104.16 µg/m3
2022-11-09 20:00 78.8 µg/m3 5.19 µg/m3 56.49 µg/m3 13.58 µg/m3 19.45 °C 67.92 % 1,018.69 mbar 0.93 m/s 207.68 Deg 56.8 µg/m3
2022-11-09 19:00 41.1 µg/m3 2.72 µg/m3 30.07 µg/m3 8.51 µg/m3 19.9 °C 62.05 % 1,018.48 mbar 0.08 m/s 98.13 Deg 1.67 µg/m3
2022-11-09 18:00 32.76 µg/m3 3.25 µg/m3 29.65 µg/m3 6.9 µg/m3 20.33 °C 62.8 % 1,018.32 mbar 0.04 m/s 266.23 Deg 2.12 µg/m3
2022-11-09 17:00 19.75 µg/m3 3.44 µg/m3 21.97 µg/m3 5.5 µg/m3 21.58 °C 59.57 % 1,018.35 mbar 0.48 m/s 304 Deg 1.44 µg/m3
2022-11-09 16:00 29.54 µg/m3 4.42 µg/m3 22.48 µg/m3 5.71 µg/m3 22.61 °C 54.82 % 1,018.46 mbar 0.92 m/s 240.08 Deg 7.98 µg/m3
2022-11-09 15:00 37.28 µg/m3 4.72 µg/m3 22.48 µg/m3 6.12 µg/m3 22.43 °C 55.83 % 1,018.64 mbar 1.44 m/s 182.18 Deg 17.92 µg/m3
2022-11-09 14:00 39.09 µg/m3 3.77 µg/m3 22.48 µg/m3 6 µg/m3 22.2 °C 59.49 % 1,018.75 mbar 1.6 m/s 183.73 Deg 17.51 µg/m3
2022-11-09 13:00 39.98 µg/m3 4.58 µg/m3 22.52 µg/m3 5.8 µg/m3 22.12 °C 60.79 % 1,019.31 mbar 1.43 m/s 192.12 Deg 24.87 µg/m3
2022-11-09 12:00 44.62 µg/m3 5.09 µg/m3 26.77 µg/m3 6.53 µg/m3 22.2 °C 60.8 % 1,019.82 mbar 1.16 m/s 190.71 Deg 35.07 µg/m3
2022-11-09 11:00 30.83 µg/m3 3.94 µg/m3 29.55 µg/m3 6.7 µg/m3 21.51 °C 63.77 % 1,020.03 mbar 0.37 m/s 286.25 Deg 6.33 µg/m3
2022-11-09 10:00 41.23 µg/m3 4.13 µg/m3 31.06 µg/m3 9.3 µg/m3 20.18 °C 69.39 % 1,019.89 mbar 0.19 m/s 43.28 Deg 21.29 µg/m3
2022-11-09 09:00 105.3 µg/m3 8.37 µg/m3 67.07 µg/m3 32.71 µg/m3 17.55 °C 79.76 % 1,019.73 mbar 0.63 m/s 188.81 Deg 255.74 µg/m3
2022-11-09 08:00 77.65 µg/m3 8.74 µg/m3 42.97 µg/m3 20.36 µg/m3 15.65 °C 83.3 % 1,019.26 mbar 1.9 m/s 203.6 Deg 225.57 µg/m3
2022-11-09 07:00 54.84 µg/m3 6.14 µg/m3 31.74 µg/m3 14.61 µg/m3 15.17 °C 83.83 % 1,019.00 mbar 1.86 m/s 199.26 Deg 108.58 µg/m3
2022-11-09 06:00 52.74 µg/m3 5.44 µg/m3 26.92 µg/m3 12.19 µg/m3 15.14 °C 82.59 % 1,018.97 mbar 2.18 m/s 210.76 Deg 79.43 µg/m3
2022-11-09 05:00 50.68 µg/m3 5.34 µg/m3 25.37 µg/m3 11.44 µg/m3 15.25 °C 83.17 % 1,019.02 mbar 2.12 m/s 208.72 Deg 58.5 µg/m3
2022-11-09 04:00 50.8 µg/m3 5.14 µg/m3 24.47 µg/m3 10.89 µg/m3 15.36 °C 83.52 % 1,018.98 mbar 2.09 m/s 203.48 Deg 49.44 µg/m3
2022-11-09 03:00 51.24 µg/m3 5 µg/m3 21.41 µg/m3 9.86 µg/m3 15.53 °C 84.49 % 1,019.17 mbar 2.16 m/s 202.97 Deg 40.49 µg/m3
2022-11-09 02:00 50.16 µg/m3 4.34 µg/m3 20.54 µg/m3 10.06 µg/m3 15.8 °C 84.49 % 1,019.37 mbar 2.25 m/s 207.22 Deg 42.23 µg/m3
2022-11-09 01:00 52.25 µg/m3 4.4 µg/m3 24.09 µg/m3 11.94 µg/m3 16.07 °C 83.99 % 1,019.41 mbar 2.05 m/s 204.36 Deg 49.68 µg/m3
2022-11-09 00:00 53.98 µg/m3 4.43 µg/m3 29.55 µg/m3 15.02 µg/m3 16.37 °C 83.1 % 1,019.58 mbar 2.13 m/s 205.02 Deg 58.42 µg/m3
2022-11-08 23:00 56.11 µg/m3 4.89 µg/m3 35.63 µg/m3 18.11 µg/m3 16.81 °C 82.44 % 1,019.65 mbar 2.03 m/s 208.68 Deg 55.94 µg/m3
2022-11-08 22:00 59.48 µg/m3 5.68 µg/m3 44.1 µg/m3 21.85 µg/m3 17.32 °C 80.44 % 1,019.43 mbar 1.93 m/s 206.68 Deg 66.86 µg/m3
2022-11-08 21:00 65.62 µg/m3 4.87 µg/m3 46.1 µg/m3 22.13 µg/m3 17.97 °C 79.41 % 1,019.19 mbar 1.79 m/s 206.37 Deg 61.53 µg/m3
2022-11-08 20:00 75.99 µg/m3 4.69 µg/m3 47.53 µg/m3 15.41 µg/m3 18.93 °C 75.95 % 1,019.02 mbar 1.66 m/s 211.49 Deg 64.62 µg/m3
2022-11-08 19:00 59.85 µg/m3 2.73 µg/m3 24.67 µg/m3 6.35 µg/m3 19.95 °C 69.1 % 1,018.72 mbar 1.36 m/s 224.49 Deg 6.73 µg/m3
2022-11-08 18:00 21.08 µg/m3 2.77 µg/m3 13.37 µg/m3 4.05 µg/m3 20.29 °C 66.01 % 1,018.46 mbar 2.53 m/s 242.59 Deg 0.3 µg/m3
2022-11-08 17:00 20.62 µg/m3 3.17 µg/m3 12.15 µg/m3 3.78 µg/m3 21.03 °C 61.74 % 1,018.37 mbar 2.98 m/s 258.98 Deg 1.91 µg/m3
2022-11-08 16:00 13.11 µg/m3 3.04 µg/m3 12.18 µg/m3 3.52 µg/m3 21.49 °C 59.06 % 1,018.54 mbar 2.94 m/s 256.18 Deg 2.05 µg/m3
2022-11-08 15:00 8.85 µg/m3 2.61 µg/m3 12.3 µg/m3 3.41 µg/m3 21.72 °C 56.69 % 1,018.65 mbar 2.68 m/s 256 Deg 0.63 µg/m3
2022-11-08 14:00 18.17 µg/m3 2.38 µg/m3 14.29 µg/m3 3.8 µg/m3 21.71 °C 58.97 % 1,018.96 mbar 3.11 m/s 225.22 Deg 5.97 µg/m3
2022-11-08 13:00 18.91 µg/m3 2.99 µg/m3 15.13 µg/m3 4 µg/m3 21.55 °C 61.23 % 1,019.39 mbar 2.14 m/s 255.73 Deg 4.06 µg/m3
2022-11-08 12:00 20.91 µg/m3 3.04 µg/m3 16.72 µg/m3 4.31 µg/m3 21.49 °C 62.34 % 1,019.95 mbar 1.43 m/s 242.54 Deg 6.61 µg/m3
2022-11-08 11:00 14.85 µg/m3 3.33 µg/m3 22.86 µg/m3 4.87 µg/m3 21.17 °C 62.14 % 1,020.24 mbar 1.25 m/s 233.85 Deg 1.97 µg/m3
2022-11-08 10:00 45.19 µg/m3 4.47 µg/m3 32.25 µg/m3 7.55 µg/m3 20.34 °C 67.36 % 1,020.02 mbar 1.72 m/s 216.48 Deg 25.69 µg/m3
2022-11-08 09:00 90.72 µg/m3 8.21 µg/m3 57.92 µg/m3 22.98 µg/m3 18.21 °C 77.07 % 1,019.78 mbar 1.84 m/s 193.66 Deg 197.02 µg/m3
2022-11-08 08:00 67.47 µg/m3 7.6 µg/m3 35.45 µg/m3 16.51 µg/m3 16.36 °C 83.61 % 1,019.42 mbar 2.24 m/s 203.16 Deg 147.55 µg/m3
2022-11-08 07:00 56.52 µg/m3 5.63 µg/m3 25.06 µg/m3 11.3 µg/m3 15.89 °C 85.55 % 1,019.11 mbar 2.47 m/s 204.06 Deg 95.23 µg/m3
2022-11-08 06:00 49.31 µg/m3 3.65 µg/m3 17.8 µg/m3 8.14 µg/m3 16.02 °C 85.08 % 1,019.13 mbar 2.46 m/s 207.92 Deg 19.3 µg/m3
2022-11-08 05:00 44.04 µg/m3 3.8 µg/m3 15.16 µg/m3 6.78 µg/m3 16.22 °C 84.68 % 1,019.18 mbar 2.54 m/s 210.29 Deg 15.49 µg/m3
2022-11-08 04:00 41.65 µg/m3 3.61 µg/m3 14.8 µg/m3 6.6 µg/m3 16.35 °C 84.33 % 1,019.18 mbar 2.5 m/s 211.56 Deg 9.37 µg/m3
2022-11-08 03:00 37.05 µg/m3 5.22 µg/m3 13.7 µg/m3 5.8 µg/m3 16.52 °C 83.97 % 1,019.39 mbar 2.79 m/s 211.58 Deg 4.27 µg/m3
2022-11-08 02:00 40.77 µg/m3 4.77 µg/m3 13.79 µg/m3 5.81 µg/m3 16.84 °C 83.28 % 1,019.65 mbar 2.56 m/s 215.93 Deg 6.35 µg/m3
2022-11-08 01:00 44.63 µg/m3 4.21 µg/m3 15.2 µg/m3 6.7 µg/m3 17.25 °C 80.62 % 1,019.75 mbar 2.64 m/s 214.27 Deg 11.97 µg/m3
2022-11-08 00:00 50.9 µg/m3 4.3 µg/m3 14.92 µg/m3 6.05 µg/m3 17.8 °C 77.46 % 1,019.84 mbar 2.4 m/s 211.47 Deg 3.1 µg/m3
2022-11-07 23:00 56.26 µg/m3 4.31 µg/m3 17.87 µg/m3 6.58 µg/m3 18.35 °C 73.8 % 1,019.87 mbar 2.18 m/s 207.88 Deg 12.64 µg/m3
2022-11-07 22:00 61.24 µg/m3 4.48 µg/m3 20.23 µg/m3 6.98 µg/m3 18.67 °C 71.79 % 1,019.80 mbar 2 m/s 206.85 Deg 15.77 µg/m3
2022-11-07 21:00 68.37 µg/m3 4.54 µg/m3 23.31 µg/m3 8.19 µg/m3 18.86 °C 72.16 % 1,019.57 mbar 2.37 m/s 212.34 Deg 29.39 µg/m3
2022-11-07 20:00 45.77 µg/m3 3.69 µg/m3 18.28 µg/m3 5.62 µg/m3 19.66 °C 68.21 % 1,019.38 mbar 2.04 m/s 245.84 Deg 11.58 µg/m3
2022-11-07 19:00 31.83 µg/m3 4.03 µg/m3 18.54 µg/m3 4.94 µg/m3 19.77 °C 67.42 % 1,019.05 mbar 2.11 m/s 274.63 Deg 3.17 µg/m3
2022-11-07 18:00 28.9 µg/m3 3.84 µg/m3 17.42 µg/m3 4.86 µg/m3 20.17 °C 64.07 % 1,018.58 mbar 2.77 m/s 269.2 Deg 5.88 µg/m3
2022-11-07 17:00 17.23 µg/m3 3.84 µg/m3 17.24 µg/m3 4.37 µg/m3 20.94 °C 60.45 % 1,018.27 mbar 1.95 m/s 281.98 Deg 1.92 µg/m3
2022-11-07 16:00 13.36 µg/m3 3.55 µg/m3 16.26 µg/m3 4.12 µg/m3 21.37 °C 58.57 % 1,018.11 mbar 1.97 m/s 307.12 Deg 5.9 µg/m3
2022-11-07 15:00 15.04 µg/m3 3.45 µg/m3 20.42 µg/m3 4.63 µg/m3 21.26 °C 61.11 % 1,018.05 mbar 1.64 m/s 294.62 Deg 4.3 µg/m3
2022-11-07 14:00 11.11 µg/m3 3.74 µg/m3 24.93 µg/m3 5.03 µg/m3 21.42 °C 61.76 % 1,018.18 mbar 1.43 m/s 332.55 Deg 2.51 µg/m3
2022-11-07 13:00 14.14 µg/m3 2.49 µg/m3 20.51 µg/m3 4.71 µg/m3 21.32 °C 63.14 % 1,018.49 mbar 1.49 m/s 332.07 Deg 3.38 µg/m3
2022-11-07 12:00 13.19 µg/m3 3.59 µg/m3 19.43 µg/m3 5.42 µg/m3 21.3 °C 65.04 % 1,018.80 mbar 1.57 m/s 311.47 Deg 4.48 µg/m3
2022-11-07 11:00 12.57 µg/m3 1.82 µg/m3 21.93 µg/m3 5.15 µg/m3 21 °C 66.68 % 1,018.97 mbar 1.35 m/s 310.84 Deg 3.25 µg/m3
2022-11-07 10:00 13.48 µg/m3 1.97 µg/m3 22.53 µg/m3 5.26 µg/m3 20.56 °C 67.69 % 1,018.56 mbar 1.36 m/s 293.98 Deg 4.35 µg/m3
2022-11-07 09:00 34.4 µg/m3 2.93 µg/m3 28.15 µg/m3 7.24 µg/m3 19.83 °C 72.83 % 1,018.14 mbar 1.17 m/s 286.55 Deg 9.84 µg/m3
2022-11-07 08:00 208.8 µg/m3 4.03 µg/m3 19.96 µg/m3 8.19 µg/m3 18.79 °C 77.14 % 1,017.69 mbar 2.11 m/s 230.23 Deg 28.23 µg/m3
2022-11-07 07:00 65.54 µg/m3 3.93 µg/m3 19.44 µg/m3 8.53 µg/m3 18.32 °C 80.43 % 1,017.28 mbar 2.25 m/s 206.87 Deg 74.82 µg/m3
2022-11-07 06:00 38.11 µg/m3 2.3 µg/m3 14.71 µg/m3 5.57 µg/m3 18.81 °C 77.34 % 1,016.85 mbar 2.08 m/s 231.87 Deg 6.51 µg/m3
2022-11-07 05:00 10.52 µg/m3 1.85 µg/m3 13.9 µg/m3 4.48 µg/m3 19.5 °C 72.69 % 1,016.41 mbar 1.59 m/s 288.08 Deg 1.69 µg/m3
2022-11-07 04:00 5.34 µg/m3 2.35 µg/m3 13.33 µg/m3 4.13 µg/m3 19.54 °C 73.59 % 1,016.20 mbar 1.34 m/s 301.43 Deg -0.33 µg/m3
2022-11-07 03:00 6.75 µg/m3 2.81 µg/m3 13.97 µg/m3 4.44 µg/m3 19.68 °C 73.05 % 1,016.15 mbar 1.45 m/s 298.93 Deg -0.58 µg/m3
2022-11-07 02:00 3.3 µg/m3 3.26 µg/m3 13.06 µg/m3 4.11 µg/m3 19.86 °C 72.17 % 1,016.02 mbar 1.54 m/s 313.31 Deg -0.6 µg/m3
2022-11-07 01:00 4.49 µg/m3 3.07 µg/m3 14.45 µg/m3 4.62 µg/m3 19.95 °C 71.72 % 1,015.87 mbar 1.63 m/s 294.09 Deg -0.76 µg/m3
2022-11-07 00:00 4.36 µg/m3 3.28 µg/m3 14.3 µg/m3 4.62 µg/m3 20.04 °C 70.76 % 1,015.72 mbar 1.94 m/s 303.46 Deg -0.45 µg/m3
2022-11-06 23:00 6.11 µg/m3 3.03 µg/m3 14.53 µg/m3 4.67 µg/m3 20.29 °C 69.13 % 1,015.38 mbar 2.21 m/s 303.14 Deg -0.18 µg/m3
2022-11-06 22:00 6.81 µg/m3 3.02 µg/m3 15.64 µg/m3 5.14 µg/m3 20.3 °C 68.95 % 1,014.81 mbar 2.05 m/s 313.58 Deg 0.66 µg/m3
2022-11-06 21:00 7.11 µg/m3 2.97 µg/m3 16.39 µg/m3 5.46 µg/m3 20.32 °C 69.59 % 1,014.20 mbar 2.44 m/s 292.67 Deg -0.04 µg/m3
2022-11-06 20:00 7.28 µg/m3 3.33 µg/m3 18.31 µg/m3 6.04 µg/m3 20.33 °C 68.69 % 1,013.66 mbar 2.52 m/s 287.4 Deg -0.19 µg/m3
2022-11-06 19:00 8.28 µg/m3 3.48 µg/m3 17.05 µg/m3 5.98 µg/m3 20.21 °C 67.33 % 1,012.83 mbar 3.19 m/s 291.5 Deg 0.06 µg/m3
2022-11-06 18:00 8.79 µg/m3 3.5 µg/m3 16.67 µg/m3 5.96 µg/m3 19.94 °C 66.78 % 1,012.04 mbar 4.85 m/s 280.82 Deg 0.28 µg/m3
2022-11-06 17:00 6.59 µg/m3 3.99 µg/m3 14.09 µg/m3 5.31 µg/m3 20.11 °C 64.23 % 1,011.39 mbar 5.91 m/s 273.42 Deg 0.46 µg/m3
2022-11-06 16:00 5.69 µg/m3 3.36 µg/m3 16.32 µg/m3 5.75 µg/m3 20.49 °C 61.11 % 1,011.04 mbar 5.4 m/s 279.93 Deg 0.02 µg/m3
2022-11-06 15:00 5.11 µg/m3 3.1 µg/m3 16.15 µg/m3 5.59 µg/m3 20.7 °C 57.81 % 1,010.60 mbar 4.97 m/s 279 Deg 0.24 µg/m3
2022-11-06 14:00 5.61 µg/m3 3.38 µg/m3 15.95 µg/m3 5.48 µg/m3 20.81 °C 56 % 1,010.27 mbar 5.63 m/s 278.23 Deg 0.81 µg/m3
2022-11-06 13:00 5.08 µg/m3 3.4 µg/m3 16.73 µg/m3 5.29 µg/m3 20.7 °C 52.94 % 1,010.46 mbar 5.1 m/s 282.98 Deg 0.63 µg/m3
2022-11-06 12:00 5.2 µg/m3 2.75 µg/m3 16.72 µg/m3 5.24 µg/m3 20.69 °C 51.69 % 1,010.41 mbar 5.54 m/s 282.31 Deg 0.46 µg/m3
2022-11-06 11:00 4.91 µg/m3 1.98 µg/m3 17.39 µg/m3 5.62 µg/m3 20.4 °C 53.69 % 1,010.24 mbar 4.41 m/s 288.56 Deg 0.67 µg/m3
2022-11-06 10:00 5.45 µg/m3 1.8 µg/m3 16.28 µg/m3 5.02 µg/m3 20.21 °C 53.15 % 1,009.83 mbar 5.03 m/s 277.72 Deg 0.37 µg/m3
2022-11-06 09:00 5.71 µg/m3 2.66 µg/m3 14.1 µg/m3 4.67 µg/m3 19.84 °C 54.95 % 1,009.45 mbar 5.76 m/s 278.52 Deg 0.26 µg/m3
2022-11-06 08:00 5.4 µg/m3 1.79 µg/m3 14.09 µg/m3 4.73 µg/m3 19.52 °C 57.69 % 1,008.73 mbar 5.77 m/s 272.98 Deg 0.11 µg/m3
2022-11-06 07:00 5.27 µg/m3 2.06 µg/m3 17.3 µg/m3 5.77 µg/m3 19.53 °C 61.23 % 1,007.93 mbar 4.27 m/s 280.67 Deg -0.2 µg/m3
2022-11-06 06:00 5.02 µg/m3 2.3 µg/m3 13.76 µg/m3 4.97 µg/m3 19.23 °C 64.8 % 1,007.37 mbar 5.42 m/s 273 Deg 0.21 µg/m3
2022-11-06 05:00 4.72 µg/m3 2.76 µg/m3 10.5 µg/m3 3.65 µg/m3 18.84 °C 67.37 % 1,006.81 mbar 4.8 m/s 259.73 Deg -0.38 µg/m3
2022-11-06 04:00 4.79 µg/m3 3.12 µg/m3 10.69 µg/m3 3.64 µg/m3 18.63 °C 69.05 % 1,006.54 mbar 4.37 m/s 265.28 Deg -0.46 µg/m3
2022-11-06 03:00 6.99 µg/m3 2.56 µg/m3 9.82 µg/m3 3.45 µg/m3 18.51 °C 67.83 % 1,006.26 mbar 4.94 m/s 270.73 Deg -0.28 µg/m3
2022-11-06 02:00 5.51 µg/m3 2.19 µg/m3 11.27 µg/m3 4.19 µg/m3 18.5 °C 67.48 % 1,006.22 mbar 4.44 m/s 258.7 Deg -0.77 µg/m3
2022-11-06 01:00 4.83 µg/m3 2.38 µg/m3 11.38 µg/m3 4.13 µg/m3 17.98 °C 70.89 % 1,005.99 mbar 4.51 m/s 262.21 Deg -0.41 µg/m3
2022-11-06 00:00 5.41 µg/m3 2.02 µg/m3 11.83 µg/m3 3.92 µg/m3 18.55 °C 65.21 % 1,006.15 mbar 4.67 m/s 271.41 Deg -0.49 µg/m3
2022-11-05 23:00 5.75 µg/m3 2.13 µg/m3 10.02 µg/m3 3.51 µg/m3 18 °C 67.25 % 1,005.97 mbar 4.85 m/s 263.83 Deg -0.16 µg/m3
2022-11-05 22:00 8.98 µg/m3 1.63 µg/m3 12.51 µg/m3 4.5 µg/m3 17.9 °C 70.54 % 1,005.59 mbar 3.17 m/s 261.2 Deg -0.35 µg/m3
2022-11-05 21:00 17.08 µg/m3 1.91 µg/m3 12.44 µg/m3 4.68 µg/m3 17.3 °C 71.97 % 1,005.33 mbar 3.27 m/s 236.35 Deg -0.41 µg/m3
2022-11-05 20:00 19.5 µg/m3 1.9 µg/m3 11.12 µg/m3 4.26 µg/m3 16.83 °C 73.92 % 1,005.03 mbar 4.04 m/s 224.18 Deg -0.47 µg/m3
2022-11-05 19:00 21.43 µg/m3 1.69 µg/m3 10.85 µg/m3 4.17 µg/m3 16.68 °C 73.07 % 1,004.73 mbar 4.34 m/s 246.38 Deg 5.35 µg/m3
2022-11-05 18:00 38.85 µg/m3 1.41 µg/m3 12.89 µg/m3 5.2 µg/m3 16.46 °C 74.98 % 1,004.49 mbar 3.49 m/s 237.96 Deg 7.33 µg/m3
2022-11-05 17:00 21.01 µg/m3 1.94 µg/m3 12.36 µg/m3 5.09 µg/m3 14.19 °C 92.83 % 1,004.34 mbar 4.3 m/s 264.18 Deg 7.17 µg/m3
2022-11-05 16:00 16.87 µg/m3 2.4 µg/m3 11.73 µg/m3 4.54 µg/m3 16.85 °C 73.68 % 1,004.12 mbar 7.85 m/s 250.23 Deg 5.7 µg/m3
2022-11-05 15:00 10.8 µg/m3 1.95 µg/m3 10.67 µg/m3 3.53 µg/m3 19.26 °C 61.1 % 1,004.03 mbar 10.64 m/s 229.74 Deg 1.86 µg/m3
2022-11-05 14:00 19 µg/m3 1.99 µg/m3 10.66 µg/m3 3.87 µg/m3 18.08 °C 65.32 % 1,004.88 mbar 7.33 m/s 237.46 Deg 6.55 µg/m3
2022-11-05 13:00 14.12 µg/m3 2.32 µg/m3 15.32 µg/m3 4.2 µg/m3 18.84 °C 60.32 % 1,005.47 mbar 10.03 m/s 232.87 Deg 3.43 µg/m3
2022-11-05 12:00 15.06 µg/m3 2.13 µg/m3 11.74 µg/m3 3.65 µg/m3 20 °C 54.11 % 1,005.89 mbar 8.38 m/s 225.4 Deg 4.96 µg/m3
2022-11-05 11:00 19.09 µg/m3 2.36 µg/m3 13.55 µg/m3 3.91 µg/m3 19.39 °C 58.69 % 1,006.68 mbar 6.29 m/s 255.79 Deg 7.25 µg/m3
2022-11-05 10:00 14.26 µg/m3 2.46 µg/m3 14.37 µg/m3 4.28 µg/m3 18.62 °C 62.13 % 1,006.59 mbar 5.55 m/s 274.62 Deg 9.38 µg/m3
2022-11-05 09:00 30.61 µg/m3 2.28 µg/m3 14.29 µg/m3 5.6 µg/m3 17.28 °C 78.09 % 1,006.45 mbar 4.25 m/s 219.02 Deg 8.73 µg/m3
2022-11-05 08:00 35.96 µg/m3 2.75 µg/m3 13.03 µg/m3 5.12 µg/m3 17.09 °C 76.85 % 1,006.42 mbar 4 m/s 203.04 Deg 8.26 µg/m3
2022-11-05 07:00 18.65 µg/m3 2.52 µg/m3 9.77 µg/m3 3.54 µg/m3 17.09 °C 73.12 % 1,006.41 mbar 5.57 m/s 235.53 Deg 1.5 µg/m3
2022-11-05 06:00 17.15 µg/m3 2.5 µg/m3 9.72 µg/m3 3.21 µg/m3 18.44 °C 66.9 % 1,006.99 mbar 7.85 m/s 249.1 Deg 2.78 µg/m3
2022-11-05 05:00 8.43 µg/m3 2.55 µg/m3 12.4 µg/m3 4.25 µg/m3 19.77 °C 67.62 % 1,006.07 mbar 4.97 m/s 263.83 Deg 0.46 µg/m3
2022-11-05 04:00 27.15 µg/m3 2.64 µg/m3 16.22 µg/m3 6.57 µg/m3 19.94 °C 77.11 % 1,005.39 mbar 3.03 m/s 251.89 Deg 5.99 µg/m3
2022-11-05 03:00 27.07 µg/m3 2.56 µg/m3 18.5 µg/m3 7.99 µg/m3 20.2 °C 78.11 % 1,006.17 mbar 1.94 m/s 275.35 Deg 1.76 µg/m3
2022-11-05 02:00 14.69 µg/m3 2.65 µg/m3 33.19 µg/m3 13.63 µg/m3 21.44 °C 75.04 % 1,006.28 mbar 5.23 m/s 240.61 Deg 4.39 µg/m3
2022-11-05 01:00 9.31 µg/m3 2.79 µg/m3 25.45 µg/m3 9.87 µg/m3 23.94 °C 66.14 % 1,006.54 mbar 6.82 m/s 198.9 Deg 0.35 µg/m3
2022-11-05 00:00 16.5 µg/m3 3.23 µg/m3 23.59 µg/m3 9.43 µg/m3 23.73 °C 63.59 % 1,007.64 mbar 6.14 m/s 189.36 Deg 2.6 µg/m3
2022-11-04 23:00 17.67 µg/m3 2.68 µg/m3 21.49 µg/m3 9.04 µg/m3 23.53 °C 65.21 % 1,008.25 mbar 6.89 m/s 186.83 Deg 2.88 µg/m3
2022-11-04 22:00 15.8 µg/m3 2.72 µg/m3 21.27 µg/m3 8.47 µg/m3 23.52 °C 65.73 % 1,008.49 mbar 7.01 m/s 187.63 Deg 1.71 µg/m3
2022-11-04 21:00 20.7 µg/m3 2.8 µg/m3 26.39 µg/m3 9.24 µg/m3 23.48 °C 66.71 % 1,008.86 mbar 5.75 m/s 192.29 Deg 3.69 µg/m3
2022-11-04 20:00 40.74 µg/m3 3.26 µg/m3 23.33 µg/m3 8.95 µg/m3 23.36 °C 66.14 % 1,009.52 mbar 4.51 m/s 187.64 Deg 18.81 µg/m3
2022-11-04 19:00 57.08 µg/m3 3.47 µg/m3 23.3 µg/m3 10.14 µg/m3 23.08 °C 70.41 % 1,009.60 mbar 5.15 m/s 188.14 Deg 26.07 µg/m3
2022-11-04 18:00 47.21 µg/m3 3.38 µg/m3 23.55 µg/m3 9.62 µg/m3 23.02 °C 68.72 % 1,009.99 mbar 4.58 m/s 188.18 Deg 16.88 µg/m3
2022-11-04 17:00 39.69 µg/m3 3.5 µg/m3 21.89 µg/m3 8.78 µg/m3 23.37 °C 66.87 % 1,010.50 mbar 6.19 m/s 192.38 Deg 12.21 µg/m3
2022-11-04 16:00 32.23 µg/m3 3.3 µg/m3 28.87 µg/m3 9.33 µg/m3 23.81 °C 65.48 % 1,010.80 mbar 6.64 m/s 198.75 Deg 10.05 µg/m3
2022-11-04 15:00 18.66 µg/m3 2.88 µg/m3 29.8 µg/m3 9.06 µg/m3 23.96 °C 65.77 % 1,011.55 mbar 7.11 m/s 199.05 Deg 3.94 µg/m3
2022-11-04 14:00 17.22 µg/m3 3.06 µg/m3 26.01 µg/m3 8.07 µg/m3 23.92 °C 64.84 % 1,012.19 mbar 7.81 m/s 203.96 Deg 4.66 µg/m3
2022-11-04 13:00 13.94 µg/m3 2.9 µg/m3 20.53 µg/m3 7.25 µg/m3 23.8 °C 64.55 % 1,012.92 mbar 7.81 m/s 203.01 Deg 3.27 µg/m3
2022-11-04 12:00 17.72 µg/m3 2.93 µg/m3 22.36 µg/m3 7.28 µg/m3 23.69 °C 64.86 % 1,013.99 mbar 7.12 m/s 205.01 Deg 4.76 µg/m3
2022-11-04 11:00 15.46 µg/m3 2.53 µg/m3 26.31 µg/m3 7.46 µg/m3 23.57 °C 65.69 % 1,014.74 mbar 6.72 m/s 206.31 Deg 2.87 µg/m3
2022-11-04 10:00 16.69 µg/m3 1.73 µg/m3 25.6 µg/m3 7.13 µg/m3 23.19 °C 67.03 % 1,015.14 mbar 7.05 m/s 199.03 Deg 3.45 µg/m3
2022-11-04 09:00 29.16 µg/m3 2.68 µg/m3 25.42 µg/m3 8.02 µg/m3 22.77 °C 68.35 % 1,015.37 mbar 5.63 m/s 194.16 Deg 4.76 µg/m3
2022-11-04 08:00 58.14 µg/m3 4.12 µg/m3 35.69 µg/m3 10.04 µg/m3 21.75 °C 71.81 % 1,015.39 mbar 2.78 m/s 184.18 Deg 18.84 µg/m3
2022-11-04 07:00 65.78 µg/m3 4.16 µg/m3 24.08 µg/m3 10.45 µg/m3 20.57 °C 79.29 % 1,015.37 mbar 1.65 m/s 197.58 Deg 48.04 µg/m3
2022-11-04 06:00 63.65 µg/m3 3.73 µg/m3 23.08 µg/m3 10.31 µg/m3 20.4 °C 80.38 % 1,015.44 mbar 1.25 m/s 202.81 Deg 37.27 µg/m3
2022-11-04 05:00 57.75 µg/m3 2.72 µg/m3 20.73 µg/m3 9.53 µg/m3 20.44 °C 80.24 % 1,015.44 mbar 1.77 m/s 196.17 Deg 11.71 µg/m3
2022-11-04 04:00 58.96 µg/m3 2.95 µg/m3 24.14 µg/m3 11.82 µg/m3 19.95 °C 82.09 % 1,015.43 mbar 2.2 m/s 206.29 Deg 34.84 µg/m3
2022-11-04 03:00 58.76 µg/m3 2.19 µg/m3 23.51 µg/m3 11.87 µg/m3 19.67 °C 82.79 % 1,016.06 mbar 1.51 m/s 202.96 Deg 28.55 µg/m3
2022-11-04 02:00 59.12 µg/m3 2.37 µg/m3 26.2 µg/m3 13.83 µg/m3 19.61 °C 82.35 % 1,016.61 mbar 1.33 m/s 205 Deg 55.81 µg/m3
2022-11-04 01:00 59.62 µg/m3 4.15 µg/m3 29.62 µg/m3 16.01 µg/m3 19.6 °C 82.06 % 1,017.12 mbar 1.6 m/s 203.23 Deg 44.23 µg/m3
2022-11-04 00:00 58.9 µg/m3 4.3 µg/m3 30.18 µg/m3 15.39 µg/m3 19.85 °C 82.03 % 1,017.41 mbar 1.6 m/s 209.17 Deg 35.11 µg/m3
2022-11-03 23:00 60.99 µg/m3 4.34 µg/m3 31.71 µg/m3 16.47 µg/m3 20.08 °C 80.56 % 1,017.72 mbar 1.74 m/s 208.24 Deg 28.72 µg/m3
2022-11-03 22:00 66.4 µg/m3 4.12 µg/m3 33.21 µg/m3 16.81 µg/m3 20.6 °C 78.05 % 1,018.02 mbar 1.7 m/s 201.98 Deg 24.15 µg/m3
2022-11-03 21:00 69.88 µg/m3 4.65 µg/m3 41.26 µg/m3 18.07 µg/m3 21.01 °C 76.51 % 1,018.01 mbar 1.54 m/s 202.52 Deg 48.37 µg/m3
2022-11-03 20:00 69.29 µg/m3 3.49 µg/m3 36.51 µg/m3 14.38 µg/m3 21.63 °C 74.62 % 1,018.02 mbar 1.6 m/s 204.59 Deg 11.45 µg/m3
2022-11-03 19:00 48.86 µg/m3 2.88 µg/m3 28.67 µg/m3 12.45 µg/m3 22.17 °C 72.64 % 1,018.09 mbar 2.47 m/s 227 Deg 2.35 µg/m3
2022-11-03 18:00 19.5 µg/m3 3.24 µg/m3 19.48 µg/m3 8.64 µg/m3 22.49 °C 70.92 % 1,017.95 mbar 2.97 m/s 242.21 Deg 0.65 µg/m3
2022-11-03 17:00 21.67 µg/m3 3.39 µg/m3 16.85 µg/m3 7.6 µg/m3 22.95 °C 68.87 % 1,018.05 mbar 3.94 m/s 237.3 Deg 3.78 µg/m3
2022-11-03 16:00 14.8 µg/m3 2.34 µg/m3 16.66 µg/m3 6.58 µg/m3 23.53 °C 66.67 % 1,018.23 mbar 4.16 m/s 242.43 Deg 2.1 µg/m3
2022-11-03 15:00 12.3 µg/m3 2.68 µg/m3 15.77 µg/m3 6.13 µg/m3 23.72 °C 64.29 % 1,018.31 mbar 4.23 m/s 252.31 Deg 1.87 µg/m3
2022-11-03 14:00 10.52 µg/m3 2.71 µg/m3 15.77 µg/m3 5.86 µg/m3 23.61 °C 64.59 % 1,018.74 mbar 4.4 m/s 257.55 Deg 2.36 µg/m3
2022-11-03 13:00 8.88 µg/m3 2.89 µg/m3 14.27 µg/m3 5.46 µg/m3 23.63 °C 63.73 % 1,019.40 mbar 4.59 m/s 238.14 Deg 5.39 µg/m3
2022-11-03 12:00 10.76 µg/m3 2.8 µg/m3 15.05 µg/m3 5.77 µg/m3 23.49 °C 66.17 % 1,020.15 mbar 3.65 m/s 245.88 Deg 1.38 µg/m3
2022-11-03 11:00 12.81 µg/m3 3.18 µg/m3 15.9 µg/m3 6.34 µg/m3 23.06 °C 68.32 % 1,020.71 mbar 3.67 m/s 246.98 Deg 2.41 µg/m3
2022-11-03 10:00 31.76 µg/m3 3.29 µg/m3 20.01 µg/m3 8.04 µg/m3 22.41 °C 72.11 % 1,020.93 mbar 2.4 m/s 247.18 Deg 9.62 µg/m3
2022-11-03 09:00 80.92 µg/m3 5.15 µg/m3 43.9 µg/m3 21.02 µg/m3 20.6 °C 82.54 % 1,020.95 mbar 1.8 m/s 194.21 Deg 89.36 µg/m3
2022-11-03 08:00 66.05 µg/m3 6.8 µg/m3 49.69 µg/m3 24.04 µg/m3 18.68 °C 88.58 % 1,020.56 mbar 2.02 m/s 207.25 Deg 160.79 µg/m3
2022-11-03 07:00 59.16 µg/m3 4.17 µg/m3 34.99 µg/m3 16.9 µg/m3 18.3 °C 90.81 % 1,020.13 mbar 2.46 m/s 211.94 Deg 64.38 µg/m3
2022-11-03 06:00 39.16 µg/m3 3.21 µg/m3 29.73 µg/m3 14.63 µg/m3 18.19 °C 90.58 % 1,019.95 mbar 2.44 m/s 210.28 Deg 10.4 µg/m3
2022-11-03 05:00 36.67 µg/m3 3.55 µg/m3 28.72 µg/m3 15.52 µg/m3 18.16 °C 89.58 % 1,019.96 mbar 2.3 m/s 206.87 Deg 6.11 µg/m3
2022-11-03 04:00 33.86 µg/m3 3.02 µg/m3 26.31 µg/m3 13.96 µg/m3 18.32 °C 88.52 % 1,020.10 mbar 2.54 m/s 207.84 Deg 4.3 µg/m3
2022-11-03 03:00 38.85 µg/m3 3.37 µg/m3 26.38 µg/m3 14.11 µg/m3 18.59 °C 87.25 % 1,020.44 mbar 2.31 m/s 208.88 Deg 4.84 µg/m3
2022-11-03 02:00 17.24 µg/m3 3.17 µg/m3 24.8 µg/m3 13.32 µg/m3 18.8 °C 86.62 % 1,020.61 mbar 2.49 m/s 201 Deg -0.05 µg/m3
2022-11-03 01:00 26.63 µg/m3 2.47 µg/m3 27.58 µg/m3 14.94 µg/m3 19.09 °C 84.78 % 1,020.68 mbar 2.35 m/s 208.7 Deg 0.33 µg/m3
2022-11-03 00:00 35.1 µg/m3 3.21 µg/m3 26.89 µg/m3 14.55 µg/m3 19.59 °C 83.67 % 1,020.81 mbar 2.65 m/s 207.86 Deg 10.97 µg/m3
2022-11-02 23:00 47.98 µg/m3 2.87 µg/m3 25.49 µg/m3 13.08 µg/m3 20.25 °C 81.57 % 1,020.86 mbar 2.2 m/s 208.95 Deg 6.37 µg/m3
2022-11-02 22:00 55.14 µg/m3 2.63 µg/m3 24.96 µg/m3 11.94 µg/m3 20.86 °C 80.21 % 1,020.79 mbar 1.72 m/s 210.85 Deg 3.93 µg/m3
2022-11-02 21:00 45.15 µg/m3 2.52 µg/m3 23.95 µg/m3 11.23 µg/m3 21.22 °C 79.77 % 1,020.82 mbar 1.98 m/s 221.05 Deg 1.93 µg/m3
2022-11-02 20:00 23.25 µg/m3 2.25 µg/m3 20.66 µg/m3 9.06 µg/m3 21.69 °C 77.42 % 1,020.69 mbar 1.87 m/s 271.87 Deg 0.84 µg/m3
2022-11-02 19:00 26.19 µg/m3 1.87 µg/m3 21.44 µg/m3 8.55 µg/m3 22.06 °C 75.55 % 1,020.48 mbar 2.1 m/s 268.16 Deg 2.57 µg/m3
2022-11-02 18:00 19.11 µg/m3 1.02 µg/m3 19.04 µg/m3 7.95 µg/m3 22.45 °C 73.4 % 1,020.23 mbar 3.18 m/s 260.83 Deg 0.36 µg/m3
2022-11-02 17:00 17.23 µg/m3 2.52 µg/m3 20.77 µg/m3 7.98 µg/m3 23.22 °C 70.22 % 1,020.14 mbar 2.99 m/s 264.13 Deg 2.37 µg/m3
2022-11-02 16:00 13.28 µg/m3 2.34 µg/m3 22.76 µg/m3 7.66 µg/m3 23.8 °C 69.67 % 1,020.16 mbar 1.44 m/s 331.39 Deg 1.21 µg/m3
2022-11-02 15:00 11.33 µg/m3 2.43 µg/m3 23.87 µg/m3 8.07 µg/m3 23.78 °C 69.82 % 1,020.23 mbar 1.82 m/s 340.09 Deg 1.65 µg/m3
2022-11-02 14:00 11.15 µg/m3 2.55 µg/m3 24.22 µg/m3 8 µg/m3 23.72 °C 70.18 % 1,020.58 mbar 1.82 m/s 344.68 Deg 1.21 µg/m3
2022-11-02 13:00 11.17 µg/m3 2.27 µg/m3 22.82 µg/m3 7.49 µg/m3 23.62 °C 70.72 % 1,021.18 mbar 1.75 m/s 341.89 Deg 1.65 µg/m3
2022-11-02 12:00 10.06 µg/m3 2.29 µg/m3 21.74 µg/m3 7.53 µg/m3 23.43 °C 71.5 % 1,021.70 mbar 1.83 m/s 346.21 Deg 1.11 µg/m3
2022-11-02 11:00 15.59 µg/m3 2.5 µg/m3 23.25 µg/m3 7.93 µg/m3 23.29 °C 71.82 % 1,022.09 mbar 1.61 m/s 339.5 Deg 3.56 µg/m3
2022-11-02 10:00 20.17 µg/m3 3.14 µg/m3 21.63 µg/m3 8.11 µg/m3 22.73 °C 74.49 % 1,022.11 mbar 1.8 m/s 299.62 Deg 4.79 µg/m3
2022-11-02 09:00 72.48 µg/m3 4.78 µg/m3 37.61 µg/m3 17.72 µg/m3 21.5 °C 81.09 % 1,022.17 mbar 1.4 m/s 226.59 Deg 89.13 µg/m3
2022-11-02 08:00 79.77 µg/m3 7.19 µg/m3 52.74 µg/m3 25.63 µg/m3 19.42 °C 88.03 % 1,021.77 mbar 1.92 m/s 193.58 Deg 176.02 µg/m3
2022-11-02 07:00 65.01 µg/m3 4.78 µg/m3 36.37 µg/m3 18.82 µg/m3 18.81 °C 88.7 % 1,021.25 mbar 2.21 m/s 202.12 Deg 61.42 µg/m3
2022-11-02 06:00 55.93 µg/m3 4.61 µg/m3 39.01 µg/m3 20.12 µg/m3 18.85 °C 87.95 % 1,020.92 mbar 1.75 m/s 208.98 Deg 49.86 µg/m3
2022-11-02 05:00 47.01 µg/m3 3.65 µg/m3 30.49 µg/m3 17.03 µg/m3 18.84 °C 87.53 % 1,020.68 mbar 2.16 m/s 203.63 Deg 11.74 µg/m3
2022-11-02 04:00 52.24 µg/m3 3.98 µg/m3 30.84 µg/m3 17.17 µg/m3 19.27 °C 86.77 % 1,020.70 mbar 1.72 m/s 201.22 Deg 21.11 µg/m3
2022-11-02 03:00 45.26 µg/m3 3.58 µg/m3 28.1 µg/m3 15.22 µg/m3 19.52 °C 85.84 % 1,020.99 mbar 1.86 m/s 201.48 Deg 1.15 µg/m3
2022-11-02 02:00 46.46 µg/m3 3.84 µg/m3 28.41 µg/m3 15.42 µg/m3 19.95 °C 84.18 % 1,021.33 mbar 2.09 m/s 206.18 Deg 0.65 µg/m3
2022-11-02 01:00 54.41 µg/m3 3.17 µg/m3 27.38 µg/m3 14.09 µg/m3 20.66 °C 82.44 % 1,021.45 mbar 1.76 m/s 214.18 Deg 5.57 µg/m3
2022-11-02 00:00 56.57 µg/m3 3.75 µg/m3 24.81 µg/m3 11.9 µg/m3 21.32 °C 79.16 % 1,021.72 mbar 1.64 m/s 213.81 Deg 10.83 µg/m3
2022-11-01 23:00 24.38 µg/m3 3.2 µg/m3 22.48 µg/m3 9.95 µg/m3 21.78 °C 76.17 % 1,021.88 mbar 1.09 m/s 244.91 Deg 0.49 µg/m3
2022-11-01 22:00 33.54 µg/m3 3.54 µg/m3 24.21 µg/m3 10.73 µg/m3 21.83 °C 75.79 % 1,021.98 mbar 1.23 m/s 249.11 Deg 2.21 µg/m3
2022-11-01 21:00 33.33 µg/m3 3.43 µg/m3 25.7 µg/m3 10.96 µg/m3 21.97 °C 75.89 % 1,021.87 mbar 1.51 m/s 264.33 Deg 0.88 µg/m3
2022-11-01 20:00 31.4 µg/m3 3.31 µg/m3 26.48 µg/m3 11.56 µg/m3 22.14 °C 75.12 % 1,021.71 mbar 1.74 m/s 255.39 Deg 0.77 µg/m3
2022-11-01 19:00 28.79 µg/m3 3.26 µg/m3 28.07 µg/m3 11.45 µg/m3 22.35 °C 73.31 % 1,021.38 mbar 1.98 m/s 262.61 Deg 0.72 µg/m3
2022-11-01 18:00 26.86 µg/m3 3.58 µg/m3 27.79 µg/m3 10.6 µg/m3 22.64 °C 71.3 % 1,020.83 mbar 1.86 m/s 279.63 Deg 1.4 µg/m3
2022-11-01 17:00 15.45 µg/m3 3.5 µg/m3 25.3 µg/m3 9.43 µg/m3 23.31 °C 68.16 % 1,020.44 mbar 1.48 m/s 302.81 Deg 2.21 µg/m3
2022-11-01 16:00 14.44 µg/m3 3.53 µg/m3 25.69 µg/m3 9.33 µg/m3 23.72 °C 66.3 % 1,020.34 mbar 1.6 m/s 296.86 Deg 2.98 µg/m3
2022-11-01 15:00 13.22 µg/m3 3.49 µg/m3 25.93 µg/m3 9.2 µg/m3 23.83 °C 65.48 % 1,020.33 mbar 1.79 m/s 332.19 Deg 3.99 µg/m3
2022-11-01 14:00 11.29 µg/m3 3.13 µg/m3 28.18 µg/m3 8.81 µg/m3 23.77 °C 64.25 % 1,020.49 mbar 2.05 m/s 338.8 Deg 1.8 µg/m3
2022-11-01 13:00 9.07 µg/m3 3.17 µg/m3 24.55 µg/m3 8 µg/m3 23.66 °C 63.68 % 1,020.87 mbar 2.21 m/s 336.82 Deg 0.98 µg/m3
2022-11-01 12:00 9.43 µg/m3 2.99 µg/m3 24.52 µg/m3 7.9 µg/m3 23.6 °C 64.65 % 1,021.33 mbar 2.09 m/s 306.73 Deg 1.14 µg/m3
2022-11-01 11:00 13.26 µg/m3 3.31 µg/m3 22.89 µg/m3 7.87 µg/m3 23.29 °C 64.98 % 1,021.64 mbar 1.98 m/s 317.27 Deg 2.69 µg/m3
2022-11-01 10:00 18.02 µg/m3 3.34 µg/m3 25.24 µg/m3 8.79 µg/m3 22.85 °C 68.32 % 1,021.54 mbar 2.26 m/s 287.48 Deg 12.26 µg/m3
2022-11-01 09:00 25.61 µg/m3 3.45 µg/m3 27.28 µg/m3 9.66 µg/m3 22.28 °C 71.48 % 1,021.34 mbar 1.64 m/s 283.46 Deg 3.77 µg/m3
2022-11-01 08:00 64.98 µg/m3 3.85 µg/m3 29.14 µg/m3 12.85 µg/m3 21.19 °C 77.52 % 1,020.96 mbar 1.37 m/s 239.58 Deg 24.34 µg/m3
2022-11-01 07:00 72.06 µg/m3 4.33 µg/m3 24.97 µg/m3 11.71 µg/m3 20.92 °C 78.53 % 1,020.50 mbar 1.51 m/s 220.43 Deg 28 µg/m3
2022-11-01 06:00 31.22 µg/m3 2.95 µg/m3 19.71 µg/m3 9.01 µg/m3 20.94 °C 77.76 % 1,020.16 mbar 1.38 m/s 259.73 Deg 3.05 µg/m3
2022-11-01 05:00 22.24 µg/m3 3.18 µg/m3 19.29 µg/m3 8.84 µg/m3 20.9 °C 78.78 % 1,020.08 mbar 1.36 m/s 257.35 Deg -0.14 µg/m3
2022-11-01 04:00 18.57 µg/m3 2.86 µg/m3 18.85 µg/m3 8.73 µg/m3 20.92 °C 78.91 % 1,019.94 mbar 1.81 m/s 256.51 Deg 0.63 µg/m3
2022-11-01 03:00 11.44 µg/m3 3.21 µg/m3 18.86 µg/m3 8.68 µg/m3 20.95 °C 78.34 % 1,019.89 mbar 1.75 m/s 260.33 Deg -0.39 µg/m3
2022-11-01 02:00 7.82 µg/m3 3.07 µg/m3 18.88 µg/m3 8.71 µg/m3 21.03 °C 77.98 % 1,020.02 mbar 1.94 m/s 264.12 Deg -0.48 µg/m3
2022-11-01 01:00 26.38 µg/m3 3.84 µg/m3 20.03 µg/m3 9.29 µg/m3 21.12 °C 77.79 % 1,020.14 mbar 1.82 m/s 265.02 Deg 13.72 µg/m3
2022-11-01 00:00 38.41 µg/m3 4.26 µg/m3 21.84 µg/m3 9.82 µg/m3 21.2 °C 76.55 % 1,020.27 mbar 1.73 m/s 247.46 Deg 14.73 µg/m3
2022-10-31 23:00 37.15 µg/m3 3.69 µg/m3 22.45 µg/m3 9.8 µg/m3 21.34 °C 75.04 % 1,020.36 mbar 1.95 m/s 226.95 Deg 2.59 µg/m3
2022-10-31 22:00 25.99 µg/m3 3.2 µg/m3 22.68 µg/m3 9.71 µg/m3 21.44 °C 72.54 % 1,020.31 mbar 1.83 m/s 251.83 Deg 0.71 µg/m3
2022-10-31 21:00 21.29 µg/m3 3.4 µg/m3 22.73 µg/m3 9.15 µg/m3 21.46 °C 69.57 % 1,020.13 mbar 2.22 m/s 264.31 Deg -0.44 µg/m3
2022-10-31 20:00 42.57 µg/m3 3.57 µg/m3 23.3 µg/m3 8.45 µg/m3 21.68 °C 62.7 % 1,020.12 mbar 2.18 m/s 267.02 Deg 2.79 µg/m3
2022-10-31 19:00 47.88 µg/m3 4.15 µg/m3 24.33 µg/m3 8.1 µg/m3 22.1 °C 58.83 % 1,019.94 mbar 2.17 m/s 268.18 Deg 6.65 µg/m3
2022-10-31 18:00 30.93 µg/m3 3.62 µg/m3 27.39 µg/m3 9.06 µg/m3 22.36 °C 61.81 % 1,019.44 mbar 1.66 m/s 284.81 Deg 3.31 µg/m3
2022-10-31 17:00 16.9 µg/m3 3.44 µg/m3 26.17 µg/m3 9.38 µg/m3 22.9 °C 66.13 % 1,019.21 mbar 1.45 m/s 302.9 Deg 3.31 µg/m3
2022-10-31 16:00 14.05 µg/m3 3.74 µg/m3 28.08 µg/m3 9.95 µg/m3 23.32 °C 67.74 % 1,019.10 mbar 1.61 m/s 332.77 Deg 2.81 µg/m3
2022-10-31 15:00 11.09 µg/m3 3.57 µg/m3 26.71 µg/m3 9.06 µg/m3 23.62 °C 64.01 % 1,019.05 mbar 1.79 m/s 329.3 Deg 0.86 µg/m3
2022-10-31 14:00 11.23 µg/m3 3.56 µg/m3 25.59 µg/m3 8.31 µg/m3 23.65 °C 61.9 % 1,019.14 mbar 1.98 m/s 328.49 Deg 1.27 µg/m3
2022-10-31 13:00 10.37 µg/m3 3.79 µg/m3 26.45 µg/m3 8.2 µg/m3 23.58 °C 61.21 % 1,019.51 mbar 1.96 m/s 342.31 Deg 0.83 µg/m3
2022-10-31 12:00 11 µg/m3 3.43 µg/m3 30.41 µg/m3 9.21 µg/m3 23.34 °C 64.61 % 1,019.93 mbar 1.8 m/s 331.28 Deg 1.77 µg/m3
2022-10-31 11:00 14.12 µg/m3 3.44 µg/m3 31.85 µg/m3 9.8 µg/m3 23.17 °C 65.89 % 1,020.24 mbar 1.41 m/s 328 Deg 3.35 µg/m3
2022-10-31 10:00 34.19 µg/m3 3.86 µg/m3 39.94 µg/m3 11.12 µg/m3 22.65 °C 68.65 % 1,020.32 mbar 1.32 m/s 341.58 Deg 8.94 µg/m3
2022-10-31 09:00 30.89 µg/m3 3.98 µg/m3 37.55 µg/m3 14.09 µg/m3 21.82 °C 72.97 % 1,020.03 mbar 1.15 m/s 303.84 Deg 31.56 µg/m3
2022-10-31 08:00 80.69 µg/m3 7.9 µg/m3 57.37 µg/m3 27.75 µg/m3 20.01 °C 80.32 % 1,019.64 mbar 1.48 m/s 198.62 Deg 154.79 µg/m3
2022-10-31 07:00 65.32 µg/m3 5.43 µg/m3 44.54 µg/m3 21.34 µg/m3 19.74 °C 80.5 % 1,019.22 mbar 1.39 m/s 191.76 Deg 86.07 µg/m3
2022-10-31 06:00 55.54 µg/m3 4.19 µg/m3 37.34 µg/m3 17.81 µg/m3 19.27 °C 81.1 % 1,018.88 mbar 1.32 m/s 202.6 Deg 28.75 µg/m3
2022-10-31 05:00 45.19 µg/m3 3.09 µg/m3 33.54 µg/m3 16.27 µg/m3 19 °C 81.08 % 1,018.71 mbar 1.49 m/s 203.88 Deg 8.42 µg/m3
2022-10-31 04:00 47.91 µg/m3 4.41 µg/m3 38.22 µg/m3 20.17 µg/m3 18.7 °C 81.76 % 1,018.71 mbar 1.89 m/s 214.97 Deg 19.14 µg/m3
2022-10-31 03:00 51.74 µg/m3 3.26 µg/m3 31.36 µg/m3 16.32 µg/m3 18.93 °C 81.31 % 1,018.95 mbar 1.89 m/s 207.53 Deg 8.55 µg/m3
2022-10-31 02:00 47.63 µg/m3 3.31 µg/m3 33.45 µg/m3 17.82 µg/m3 19.31 °C 81.66 % 1,019.18 mbar 1.66 m/s 213.2 Deg 5.08 µg/m3
2022-10-31 01:00 46.17 µg/m3 5.01 µg/m3 44.49 µg/m3 25.44 µg/m3 19.54 °C 80.02 % 1,019.35 mbar 1.63 m/s 207.13 Deg 50.9 µg/m3
2022-10-31 00:00 47.7 µg/m3 3.54 µg/m3 35.95 µg/m3 19.11 µg/m3 19.65 °C 79.13 % 1,019.48 mbar 1.96 m/s 208.53 Deg 0.54 µg/m3
2022-10-30 23:00 55.85 µg/m3 4 µg/m3 37.87 µg/m3 18.66 µg/m3 20.14 °C 76.73 % 1,019.59 mbar 1.95 m/s 205.98 Deg 3.08 µg/m3
2022-10-30 22:00 57.46 µg/m3 3.77 µg/m3 38.77 µg/m3 17.7 µg/m3 20.62 °C 72.9 % 1,019.66 mbar 1.59 m/s 195.98 Deg 0.5 µg/m3
2022-10-30 21:00 35.36 µg/m3 3.5 µg/m3 33.45 µg/m3 13.82 µg/m3 21.32 °C 69.07 % 1,019.56 mbar 1.24 m/s 226.33 Deg 0.13 µg/m3
2022-10-30 20:00 9.07 µg/m3 3.48 µg/m3 28.95 µg/m3 10.13 µg/m3 21.79 °C 65.15 % 1,019.40 mbar 0.67 m/s 183.81 Deg -0.17 µg/m3
2022-10-30 19:00 16.45 µg/m3 3.64 µg/m3 30.98 µg/m3 10.08 µg/m3 21.96 °C 61.75 % 1,019.07 mbar 0.7 m/s 229.83 Deg 0.34 µg/m3
2022-10-30 18:00 20.71 µg/m3 3.65 µg/m3 31.56 µg/m3 8.78 µg/m3 22.3 °C 57.03 % 1,018.61 mbar 0.8 m/s 177.27 Deg 1.61 µg/m3
2022-10-30 17:00 10.59 µg/m3 3.4 µg/m3 24.81 µg/m3 7.66 µg/m3 23.06 °C 53.09 % 1,018.48 mbar 0.79 m/s 247.93 Deg -0.01 µg/m3
2022-10-30 16:00 11.66 µg/m3 3.36 µg/m3 27.21 µg/m3 7.67 µg/m3 23.85 °C 53.21 % 1,018.54 mbar 0.65 m/s 259.93 Deg 1.63 µg/m3
2022-10-30 15:00 9.83 µg/m3 3.8 µg/m3 22.72 µg/m3 7.59 µg/m3 23.77 °C 53.88 % 1,018.73 mbar 0.92 m/s 155.14 Deg 1.05 µg/m3
2022-10-30 14:00 8.34 µg/m3 3.58 µg/m3 26.44 µg/m3 8.23 µg/m3 23.47 °C 58.15 % 1,018.83 mbar 1.05 m/s 167.14 Deg 1.82 µg/m3
2022-10-30 13:00 9.34 µg/m3 3.14 µg/m3 27.02 µg/m3 8.42 µg/m3 23.29 °C 63.15 % 1,019.26 mbar 1.18 m/s 157.91 Deg 1.35 µg/m3
2022-10-30 12:00 9.14 µg/m3 2.96 µg/m3 25.15 µg/m3 8.65 µg/m3 22.87 °C 66.43 % 1,019.63 mbar 1.25 m/s 209.4 Deg 1.44 µg/m3
2022-10-30 11:00 8.58 µg/m3 2.92 µg/m3 26.09 µg/m3 9.2 µg/m3 22.54 °C 68.23 % 1,019.80 mbar 1.15 m/s 257.48 Deg 1.06 µg/m3
2022-10-30 10:00 11.84 µg/m3 2.53 µg/m3 25.58 µg/m3 9.54 µg/m3 22.15 °C 70.63 % 1,019.72 mbar 1.09 m/s 157.95 Deg 1.72 µg/m3
2022-10-30 09:00 13.13 µg/m3 2.96 µg/m3 27.25 µg/m3 9.88 µg/m3 21.66 °C 72.79 % 1,019.51 mbar 1.09 m/s 221.98 Deg 1.25 µg/m3
2022-10-30 08:00 11.52 µg/m3 2.65 µg/m3 23.81 µg/m3 9.45 µg/m3 21.47 °C 69.72 % 1,019.23 mbar 1.06 m/s 205.5 Deg 1.2 µg/m3
2022-10-30 07:00 11.08 µg/m3 2.92 µg/m3 23.81 µg/m3 9.4 µg/m3 21.26 °C 67.68 % 1,019.04 mbar 1.01 m/s 272.49 Deg -0.39 µg/m3
2022-10-30 06:00 8.44 µg/m3 3.98 µg/m3 21.28 µg/m3 9.13 µg/m3 21.22 °C 67.81 % 1,019.03 mbar 1.09 m/s 217.98 Deg 0.28 µg/m3
2022-10-30 05:00 6.76 µg/m3 2.8 µg/m3 21.17 µg/m3 9.19 µg/m3 21.27 °C 68.68 % 1,019.00 mbar 1.01 m/s 240.45 Deg -0.37 µg/m3
2022-10-30 04:00 7.49 µg/m3 2.24 µg/m3 25.48 µg/m3 9.67 µg/m3 21.29 °C 72.6 % 1,018.91 mbar 1.12 m/s 281.27 Deg -0.59 µg/m3
2022-10-30 03:00 11.62 µg/m3 2.31 µg/m3 21.49 µg/m3 9.58 µg/m3 21.4 °C 75.38 % 1,019.17 mbar 1.5 m/s 169.16 Deg -0.55 µg/m3
2022-10-30 02:00 4.88 µg/m3 1.97 µg/m3 21.13 µg/m3 8.94 µg/m3 21.5 °C 71.74 % 1,019.57 mbar 1.14 m/s 249.33 Deg -0.48 µg/m3
2022-10-30 01:00 5.5 µg/m3 2.05 µg/m3 21.93 µg/m3 9.16 µg/m3 21.58 °C 71.68 % 1,019.92 mbar 1.16 m/s 265.36 Deg -0.53 µg/m3
2022-10-30 00:00 4.88 µg/m3 2.14 µg/m3 24.46 µg/m3 9.81 µg/m3 21.65 °C 71.1 % 1,020.12 mbar 1.1 m/s 195.21 Deg -0.38 µg/m3
2022-10-29 23:00 5.43 µg/m3 2.09 µg/m3 27.03 µg/m3 10.54 µg/m3 21.79 °C 70.79 % 1,020.23 mbar 0.97 m/s 258.06 Deg -0.09 µg/m3
2022-10-29 22:00 10.95 µg/m3 2.02 µg/m3 28.05 µg/m3 10.69 µg/m3 21.83 °C 70.77 % 1,020.26 mbar 0.93 m/s 238.37 Deg -0.2 µg/m3
2022-10-29 21:00 9.76 µg/m3 2.35 µg/m3 31.53 µg/m3 11.45 µg/m3 21.92 °C 71.57 % 1,020.13 mbar 0.9 m/s 208.03 Deg -0.25 µg/m3
2022-10-29 20:00 8.88 µg/m3 2.41 µg/m3 32.85 µg/m3 11.89 µg/m3 22.03 °C 72.55 % 1,020.10 mbar 0.92 m/s 300.29 Deg 0.32 µg/m3
2022-10-29 19:00 14.92 µg/m3 3.06 µg/m3 38.82 µg/m3 12.69 µg/m3 22.15 °C 72.39 % 1,019.87 mbar 0.88 m/s 131.35 Deg 1.3 µg/m3
2022-10-29 18:00 13.13 µg/m3 2.81 µg/m3 39.77 µg/m3 12.69 µg/m3 22.31 °C 71.37 % 1,019.50 mbar 0.87 m/s 220.6 Deg 0.26 µg/m3
2022-10-29 17:00 12.89 µg/m3 2.89 µg/m3 39.36 µg/m3 12.06 µg/m3 22.98 °C 69.37 % 1,019.36 mbar 1.01 m/s 133.8 Deg 0.81 µg/m3
2022-10-29 16:00 9.37 µg/m3 2.5 µg/m3 38.37 µg/m3 11.03 µg/m3 23.36 °C 69.12 % 1,019.51 mbar 1.2 m/s 303.42 Deg 0.51 µg/m3
2022-10-29 15:00 10.78 µg/m3 1.85 µg/m3 31.63 µg/m3 10.46 µg/m3 23.52 °C 68.33 % 1,019.73 mbar 1.3 m/s 263.98 Deg 1.06 µg/m3
2022-10-29 14:00 10.55 µg/m3 2.34 µg/m3 28.18 µg/m3 9.35 µg/m3 23.42 °C 67.31 % 1,020.02 mbar 1.47 m/s 174.58 Deg 1.29 µg/m3
2022-10-29 13:00 11.05 µg/m3 3.11 µg/m3 32.53 µg/m3 9.11 µg/m3 23.27 °C 66.56 % 1,020.62 mbar 1.62 m/s 206.65 Deg 2.7 µg/m3
2022-10-29 12:00 12.51 µg/m3 3.43 µg/m3 31.81 µg/m3 8.76 µg/m3 23.17 °C 67.19 % 1,021.10 mbar 1.59 m/s 164.39 Deg 1.93 µg/m3
2022-10-29 11:00 13.19 µg/m3 3.74 µg/m3 35.2 µg/m3 9.21 µg/m3 22.91 °C 67.12 % 1,021.37 mbar 1.41 m/s 160.91 Deg 2.21 µg/m3
2022-10-29 10:00 13.55 µg/m3 3.31 µg/m3 34.42 µg/m3 10.97 µg/m3 22.39 °C 76.38 % 1,021.38 mbar 1.55 m/s 249.9 Deg 2.64 µg/m3
2022-10-29 09:00 36.04 µg/m3 3.1 µg/m3 27.75 µg/m3 11.27 µg/m3 22.07 °C 78.79 % 1,021.17 mbar 1.58 m/s 258.98 Deg 6.98 µg/m3
2022-10-29 08:00 19.05 µg/m3 2.84 µg/m3 25.2 µg/m3 11.28 µg/m3 21.8 °C 78.87 % 1,020.86 mbar 1.14 m/s 208.05 Deg 2.5 µg/m3
2022-10-29 07:00 21.81 µg/m3 2.59 µg/m3 25.74 µg/m3 10.85 µg/m3 21.7 °C 77.4 % 1,020.56 mbar 1.09 m/s 246.4 Deg 0.99 µg/m3
2022-10-29 06:00 20.21 µg/m3 2.78 µg/m3 28.05 µg/m3 10.55 µg/m3 21.68 °C 75.57 % 1,020.59 mbar 1.03 m/s 258.19 Deg 2.81 µg/m3
2022-10-29 05:00 13.59 µg/m3 1.7 µg/m3 25.77 µg/m3 10.7 µg/m3 21.65 °C 75.97 % 1,020.58 mbar 1.05 m/s 287.7 Deg -0.36 µg/m3
2022-10-29 04:00 15.76 µg/m3 1.75 µg/m3 24.26 µg/m3 10.64 µg/m3 21.6 °C 76.68 % 1,020.64 mbar 0.92 m/s 305.13 Deg -0.33 µg/m3
2022-10-29 03:00 18.4 µg/m3 1.57 µg/m3 23.07 µg/m3 10.24 µg/m3 21.62 °C 76.58 % 1,021.14 mbar 0.87 m/s 295.75 Deg -0.32 µg/m3
2022-10-29 02:00 15.94 µg/m3 1.23 µg/m3 23.78 µg/m3 10.63 µg/m3 21.76 °C 77.75 % 1,021.52 mbar 0.92 m/s 234.99 Deg -0.04 µg/m3
2022-10-29 01:00 26.12 µg/m3 1.33 µg/m3 25.48 µg/m3 11.49 µg/m3 21.78 °C 78.36 % 1,021.81 mbar 0.64 m/s 160.59 Deg 0.21 µg/m3
2022-10-29 00:00 19.02 µg/m3 1.64 µg/m3 24.8 µg/m3 11.1 µg/m3 21.87 °C 76.7 % 1,022.07 mbar 0.57 m/s 21.93 Deg -0.3 µg/m3
2022-10-28 23:00 17.92 µg/m3 2.38 µg/m3 25.96 µg/m3 11.74 µg/m3 21.91 °C 78.16 % 1,022.23 mbar 0.57 m/s 153.53 Deg -0.23 µg/m3
2022-10-28 22:00 23.01 µg/m3 2.34 µg/m3 27.98 µg/m3 12.77 µg/m3 21.95 °C 78.71 % 1,022.36 mbar 0.25 m/s 150.17 Deg 0.58 µg/m3
2022-10-28 21:00 15.58 µg/m3 2.9 µg/m3 27.41 µg/m3 12.45 µg/m3 22.06 °C 77.29 % 1,022.28 mbar 0.13 m/s 129.18 Deg -0.65 µg/m3
2022-10-28 20:00 18.57 µg/m3 2.65 µg/m3 30.41 µg/m3 13.94 µg/m3 22.18 °C 78.04 % 1,022.16 mbar 0.15 m/s 218.16 Deg 0.13 µg/m3
2022-10-28 19:00 23.31 µg/m3 2.67 µg/m3 31.9 µg/m3 14.69 µg/m3 22.32 °C 78.17 % 1,021.99 mbar 0.38 m/s 324.48 Deg 0.16 µg/m3
2022-10-28 18:00 20.86 µg/m3 2.18 µg/m3 48.77 µg/m3 15.86 µg/m3 22.53 °C 76.8 % 1,021.77 mbar 0.5 m/s 229.13 Deg 1.9 µg/m3
2022-10-28 17:00 16.74 µg/m3 2.16 µg/m3 53.57 µg/m3 14.76 µg/m3 23.38 °C 72.96 % 1,021.76 mbar 0.55 m/s 201.43 Deg 1.61 µg/m3
2022-10-28 16:00 15.99 µg/m3 2.26 µg/m3 54.53 µg/m3 13.4 µg/m3 24.16 °C 68.59 % 1,021.84 mbar 0.77 m/s 221.98 Deg 1.37 µg/m3
2022-10-28 15:00 19.2 µg/m3 2.53 µg/m3 49.15 µg/m3 13.08 µg/m3 24.2 °C 68.83 % 1,021.85 mbar 0.86 m/s 254.3 Deg 2.87 µg/m3
2022-10-28 14:00 18.72 µg/m3 2.72 µg/m3 45.09 µg/m3 13.72 µg/m3 24.16 °C 71.19 % 1,022.36 mbar 0.79 m/s 127.08 Deg 2.69 µg/m3
2022-10-28 13:00 18.84 µg/m3 2.52 µg/m3 51.41 µg/m3 14.16 µg/m3 23.87 °C 73.45 % 1,022.96 mbar 0.84 m/s 161.4 Deg 2.57 µg/m3
2022-10-28 12:00 15.91 µg/m3 2.64 µg/m3 45.14 µg/m3 14 µg/m3 24.02 °C 73.72 % 1,023.33 mbar 0.71 m/s 248.83 Deg 1.21 µg/m3
2022-10-28 11:00 20.22 µg/m3 2.61 µg/m3 50.27 µg/m3 14.7 µg/m3 23.84 °C 75.21 % 1,023.49 mbar 0.73 m/s 206.19 Deg 2.11 µg/m3
2022-10-28 10:00 35.21 µg/m3 2.38 µg/m3 39.79 µg/m3 14.4 µg/m3 23.5 °C 77.59 % 1,023.33 mbar 0.68 m/s 249.88 Deg 4.95 µg/m3
2022-10-28 09:00 68.57 µg/m3 5.43 µg/m3 52.81 µg/m3 25.4 µg/m3 22.14 °C 82.41 % 1,023.08 mbar 0.56 m/s 188.82 Deg 94.18 µg/m3
2022-10-28 08:00 81.94 µg/m3 10.5 µg/m3 81.61 µg/m3 40.17 µg/m3 19.77 °C 89.67 % 1,022.64 mbar 1.49 m/s 194.03 Deg 283.01 µg/m3
2022-10-28 07:00 67.2 µg/m3 7.68 µg/m3 68.81 µg/m3 33.62 µg/m3 19.24 °C 92.14 % 1,022.16 mbar 1.85 m/s 204.01 Deg 192.82 µg/m3
2022-10-28 06:00 57.46 µg/m3 6.07 µg/m3 60.29 µg/m3 29.38 µg/m3 19.16 °C 92.03 % 1,022.13 mbar 2.09 m/s 207.94 Deg 102.78 µg/m3
2022-10-28 05:00 54.01 µg/m3 5.45 µg/m3 57.11 µg/m3 27.75 µg/m3 19.19 °C 91.37 % 1,022.07 mbar 1.99 m/s 203.58 Deg 82.81 µg/m3
2022-10-28 04:00 47.07 µg/m3 4.97 µg/m3 54.88 µg/m3 26.97 µg/m3 19.3 °C 89.83 % 1,022.07 mbar 2.06 m/s 212.39 Deg 72.43 µg/m3
2022-10-28 03:00 53.35 µg/m3 6.31 µg/m3 55.93 µg/m3 27.69 µg/m3 19.5 °C 89 % 1,022.15 mbar 1.89 m/s 207.18 Deg 110.89 µg/m3
2022-10-28 02:00 46.92 µg/m3 5.01 µg/m3 50.63 µg/m3 24.7 µg/m3 19.81 °C 89.52 % 1,022.47 mbar 1.81 m/s 212.91 Deg 49.74 µg/m3
2022-10-28 01:00 49.64 µg/m3 5.11 µg/m3 50.43 µg/m3 24.61 µg/m3 20.17 °C 88.39 % 1,022.67 mbar 1.89 m/s 210.33 Deg 57.6 µg/m3
2022-10-28 00:00 55.08 µg/m3 4.88 µg/m3 51.14 µg/m3 24.84 µg/m3 20.69 °C 86.72 % 1,022.74 mbar 1.44 m/s 205.81 Deg 56.87 µg/m3
2022-10-27 23:00 59.34 µg/m3 4.43 µg/m3 52.15 µg/m3 25.58 µg/m3 21.12 °C 85.24 % 1,022.83 mbar 1.64 m/s 206.73 Deg 69.05 µg/m3
2022-10-27 22:00 65.99 µg/m3 4.54 µg/m3 54.42 µg/m3 26.32 µg/m3 21.67 °C 85.42 % 1,022.82 mbar 1.52 m/s 207.03 Deg 54.09 µg/m3
2022-10-27 21:00 73.61 µg/m3 4.03 µg/m3 51.43 µg/m3 24.7 µg/m3 22.52 °C 82.99 % 1,022.87 mbar 0.98 m/s 206.02 Deg 58.02 µg/m3
2022-10-27 20:00 39.35 µg/m3 2.3 µg/m3 39.86 µg/m3 18.76 µg/m3 23.34 °C 76.08 % 1,022.65 mbar 0.22 m/s 81.15 Deg 4.48 µg/m3
2022-10-27 19:00 33.33 µg/m3 2.35 µg/m3 41.15 µg/m3 16.73 µg/m3 23.53 °C 75.72 % 1,022.35 mbar 0.32 m/s 36.13 Deg 1.5 µg/m3
2022-10-27 18:00 26.99 µg/m3 2.42 µg/m3 61.18 µg/m3 16.6 µg/m3 23.85 °C 71.81 % 1,021.96 mbar 0.37 m/s 32.79 Deg 0.04 µg/m3
2022-10-27 17:00 23.18 µg/m3 2.46 µg/m3 68.42 µg/m3 17.96 µg/m3 24.73 °C 64.87 % 1,021.98 mbar 0.55 m/s 109.94 Deg 0.38 µg/m3
2022-10-27 16:00 34.01 µg/m3 3.86 µg/m3 61.55 µg/m3 16.54 µg/m3 25.32 °C 64.64 % 1,022.01 mbar 0.68 m/s 89.67 Deg 5.56 µg/m3
2022-10-27 15:00 26.16 µg/m3 3.84 µg/m3 55.7 µg/m3 14.74 µg/m3 25.33 °C 64.77 % 1,021.99 mbar 0.7 m/s 104.36 Deg 3.23 µg/m3
2022-10-27 14:00 24.7 µg/m3 3.55 µg/m3 55.89 µg/m3 14.26 µg/m3 25.01 °C 74.92 % 1,022.30 mbar 0.7 m/s 40.58 Deg 3.81 µg/m3
2022-10-27 13:00 21.5 µg/m3 2.63 µg/m3 50.76 µg/m3 14.57 µg/m3 24.91 °C 77.11 % 1,022.75 mbar 0.65 m/s 82.12 Deg 3.4 µg/m3
2022-10-27 12:00 27.55 µg/m3 2.38 µg/m3 49.88 µg/m3 14.02 µg/m3 24.94 °C 72.77 % 1,023.20 mbar 0.85 m/s 149.04 Deg 4.32 µg/m3
2022-10-27 11:00 52.54 µg/m3 3.27 µg/m3 120.71 µg/m3 19.73 µg/m3 24.9 °C 69.18 % 1,023.35 mbar 0.52 m/s 172.75 Deg 16.88 µg/m3
2022-10-27 10:00 88.16 µg/m3 4.99 µg/m3 103.77 µg/m3 23.13 µg/m3 24.59 °C 53.6 % 1,023.11 mbar 0.41 m/s 133.18 Deg 91.48 µg/m3
2022-10-27 09:00 97.44 µg/m3 9.69 µg/m3 120.17 µg/m3 40.71 µg/m3 21.13 °C 74.59 % 1,022.94 mbar 1.33 m/s 189.48 Deg 293.45 µg/m3
2022-10-27 08:00 70.66 µg/m3 8.35 µg/m3 62.94 µg/m3 31.74 µg/m3 17.81 °C 98.72 % 1,022.44 mbar 2.02 m/s 202.85 Deg 222.79 µg/m3
2022-10-27 07:00 49.69 µg/m3 6.38 µg/m3 53.98 µg/m3 28.57 µg/m3 18.36 °C 99.98 % 1,021.98 mbar 1.98 m/s 202.18 Deg 153.96 µg/m3
2022-10-27 06:00 43.88 µg/m3 4.04 µg/m3 61.07 µg/m3 30.34 µg/m3 18.71 °C 96.42 % 1,021.82 mbar 2.05 m/s 197.54 Deg 83.9 µg/m3
2022-10-27 05:00 44.97 µg/m3 4.47 µg/m3 48.81 µg/m3 26.35 µg/m3 19.07 °C 88.78 % 1,021.60 mbar 2.2 m/s 204.54 Deg 67.54 µg/m3
2022-10-27 04:00 47.7 µg/m3 4.27 µg/m3 45.41 µg/m3 22.93 µg/m3 18.92 °C 87.72 % 1,021.50 mbar 2.35 m/s 206.06 Deg 59.85 µg/m3
2022-10-27 03:00 47.96 µg/m3 5.76 µg/m3 43.15 µg/m3 22.33 µg/m3 19.38 °C 89.62 % 1,021.50 mbar 2.23 m/s 207.94 Deg 93.54 µg/m3
2022-10-27 02:00 44.13 µg/m3 4.09 µg/m3 41.38 µg/m3 21.07 µg/m3 20.08 °C 90.38 % 1,021.41 mbar 1.86 m/s 209.3 Deg 38.66 µg/m3
2022-10-27 01:00 53.65 µg/m3 4.64 µg/m3 37.4 µg/m3 18.93 µg/m3 20.48 °C 88.04 % 1,021.44 mbar 2.07 m/s 213.85 Deg 61.88 µg/m3
2022-10-27 00:00 56.57 µg/m3 4.5 µg/m3 39.36 µg/m3 19.29 µg/m3 20.79 °C 85.27 % 1,021.61 mbar 1.62 m/s 205.28 Deg 47.88 µg/m3
2022-10-26 23:00 59.4 µg/m3 3.94 µg/m3 49.29 µg/m3 22.25 µg/m3 21 °C 79.95 % 1,021.68 mbar 1.82 m/s 208.69 Deg 52.21 µg/m3
2022-10-26 22:00 68.09 µg/m3 6.02 µg/m3 61.6 µg/m3 23.34 µg/m3 21.44 °C 73.82 % 1,021.46 mbar 1.8 m/s 204.18 Deg 97.68 µg/m3
2022-10-26 21:00 73.32 µg/m3 5.21 µg/m3 113.02 µg/m3 28.02 µg/m3 22.14 °C 70.87 % 1,021.07 mbar 1.37 m/s 204.92 Deg 85.05 µg/m3
2022-10-26 20:00 85.38 µg/m3 5.48 µg/m3 127.19 µg/m3 28.6 µg/m3 22.86 °C 65.75 % 1,020.62 mbar 1.1 m/s 195.48 Deg 96.7 µg/m3
2022-10-26 19:00 60.25 µg/m3 2.19 µg/m3 94.82 µg/m3 19.35 µg/m3 23.95 °C 71.15 % 1,020.24 mbar 0.27 m/s 234.37 Deg 16.55 µg/m3
2022-10-26 18:00 49.72 µg/m3 1.4 µg/m3 51.98 µg/m3 13.18 µg/m3 24.83 °C 58.4 % 1,019.79 mbar 0.44 m/s 38.3 Deg 3.13 µg/m3
2022-10-26 17:00 30.47 µg/m3 2.42 µg/m3 40.1 µg/m3 10.73 µg/m3 25.8 °C 60.09 % 1,019.64 mbar 0.22 m/s 250.17 Deg 5.56 µg/m3
2022-10-26 16:00 25.44 µg/m3 1.87 µg/m3 39.64 µg/m3 10 µg/m3 26.7 °C 62.31 % 1,019.55 mbar 0.34 m/s 307.99 Deg 3.04 µg/m3
2022-10-26 15:00 27.27 µg/m3 1.43 µg/m3 45.54 µg/m3 10.85 µg/m3 27.18 °C 57.47 % 1,019.56 mbar 0.33 m/s 324.04 Deg 4.09 µg/m3
2022-10-26 14:00 30.07 µg/m3 2.03 µg/m3 84.04 µg/m3 14.09 µg/m3 25.92 °C 68.18 % 1,019.66 mbar 0.72 m/s 206.08 Deg 6.85 µg/m3
2022-10-26 13:00 27.02 µg/m3 2.35 µg/m3 41.66 µg/m3 10.46 µg/m3 25.47 °C 76.17 % 1,019.87 mbar 0.8 m/s 155.32 Deg 8.44 µg/m3
2022-10-26 12:00 17.65 µg/m3 4.03 µg/m3 32.73 µg/m3 9.21 µg/m3 25.1 °C 76.94 % 1,020.18 mbar 0.82 m/s 224.48 Deg 4.93 µg/m3

It is to be noted that the data is provisional and subject to quality assurance procedures. For validated data kindly refer your request to contact.air@era.org.mt